Time,TemperatureF,DewpointF,PressureIn,WindDirection,WindDirectionDegrees,WindSpeedMPH,WindSpeedGustMPH,Humidity,HourlyPrecipIn,Conditions,Clouds,dailyrainin,SoftwareType,DateUTC
2013-02-01 00:00:00,43.0,27.0,30.09,North,0,0.0,0.0,53,0.00,,,0.00,WUHU216HW,2013-02-01 07:00:00,
2013-02-01 00:02:00,43.0,27.0,30.09,North,0,0.0,0.0,53,0.00,,,0.00,WUHU216HW,2013-02-01 07:02:00,
2013-02-01 00:03:00,43.0,27.0,30.09,North,0,0.0,0.0,53,0.00,,,0.00,WUHU216HW,2013-02-01 07:03:00,
2013-02-01 00:04:00,42.8,26.8,30.09,North,0,0.0,0.0,53,0.00,,,0.00,WUHU216HW,2013-02-01 07:04:00,
2013-02-01 00:05:00,42.8,26.8,30.09,North,0,0.0,0.0,53,0.00,,,0.00,WUHU216HW,2013-02-01 07:05:00,
2013-02-01 00:07:00,42.8,26.8,30.09,North,0,0.0,0.0,53,0.00,,,0.00,WUHU216HW,2013-02-01 07:07:00,
2013-02-01 00:09:00,42.5,26.6,30.10,North,0,0.0,0.0,53,0.00,,,0.00,WUHU216HW,2013-02-01 07:09:00,
2013-02-01 00:10:00,42.5,26.6,30.09,North,0,0.0,0.0,53,0.00,,,0.00,WUHU216HW,2013-02-01 07:10:00,
2013-02-01 00:11:00,42.5,26.6,30.09,North,0,0.0,0.0,53,0.00,,,0.00,WUHU216HW,2013-02-01 07:11:00,
2013-02-01 00:12:00,42.3,26.4,30.09,North,0,0.0,0.0,53,0.00,,,0.00,WUHU216HW,2013-02-01 07:12:00,
2013-02-01 00:14:00,42.1,26.2,30.09,North,0,0.0,0.0,53,0.00,,,0.00,WUHU216HW,2013-02-01 07:14:00,
2013-02-01 00:15:00,42.1,26.2,30.09,North,0,0.0,0.0,53,0.00,,,0.00,WUHU216HW,2013-02-01 07:15:00,
2013-02-01 00:17:00,42.1,26.7,30.09,North,0,0.0,0.0,54,0.00,,,0.00,WUHU216HW,2013-02-01 07:17:00,
2013-02-01 00:20:00,41.9,26.5,30.10,North,0,0.0,0.0,54,0.00,,,0.00,WUHU216HW,2013-02-01 07:20:00,
2013-02-01 00:21:00,41.9,26.5,30.10,North,0,0.0,0.0,54,0.00,,,0.00,WUHU216HW,2013-02-01 07:21:00,
2013-02-01 00:23:00,41.9,26.5,30.10,North,0,0.0,0.0,54,0.00,,,0.00,WUHU216HW,2013-02-01 07:23:00,
2013-02-01 00:26:00,41.9,26.5,30.10,North,0,0.0,0.0,54,0.00,,,0.00,WUHU216HW,2013-02-01 07:26:00,
2013-02-01 00:27:00,41.9,26.9,30.10,North,0,0.0,0.0,55,0.00,,,0.00,WUHU216HW,2013-02-01 07:27:00,
2013-02-01 00:28:00,41.9,26.5,30.10,North,0,0.0,0.0,54,0.00,,,0.00,WUHU216HW,2013-02-01 07:28:00,
2013-02-01 00:32:00,41.9,26.9,30.10,North,0,0.0,0.0,55,0.00,,,0.00,WUHU216HW,2013-02-01 07:32:00,
2013-02-01 00:33:00,41.9,26.9,30.10,North,0,0.0,0.0,55,0.00,,,0.00,WUHU216HW,2013-02-01 07:33:00,
2013-02-01 00:34:00,41.9,26.9,30.10,North,0,0.0,0.0,55,0.00,,,0.00,WUHU216HW,2013-02-01 07:34:00,
2013-02-01 00:38:00,41.9,26.5,30.10,North,0,0.0,0.0,54,0.00,,,0.00,WUHU216HW,2013-02-01 07:38:00,
2013-02-01 00:39:00,41.9,26.5,30.10,North,0,0.0,0.0,54,0.00,,,0.00,WUHU216HW,2013-02-01 07:39:00,
2013-02-01 00:43:00,41.9,26.5,30.10,North,0,0.0,0.0,54,0.00,,,0.00,WUHU216HW,2013-02-01 07:43:00,
2013-02-01 00:44:00,41.9,26.5,30.10,North,0,0.0,0.0,54,0.00,,,0.00,WUHU216HW,2013-02-01 07:44:00,
2013-02-01 00:45:00,41.9,26.5,30.10,North,0,0.0,0.0,54,0.00,,,0.00,WUHU216HW,2013-02-01 07:45:00,
2013-02-01 00:48:00,41.9,26.5,30.10,North,0,0.0,0.0,54,0.00,,,0.00,WUHU216HW,2013-02-01 07:48:00,
2013-02-01 00:49:00,41.9,26.5,30.10,North,0,0.0,0.0,54,0.00,,,0.00,WUHU216HW,2013-02-01 07:49:00,
2013-02-01 00:50:00,41.9,26.5,30.10,North,0,0.0,0.0,54,0.00,,,0.00,WUHU216HW,2013-02-01 07:50:00,
2013-02-01 00:51:00,41.9,26.5,30.10,North,0,0.0,0.0,54,0.00,,,0.00,WUHU216HW,2013-02-01 07:51:00,
2013-02-01 00:54:00,41.9,26.5,30.10,North,0,0.0,0.0,54,0.00,,,0.00,WUHU216HW,2013-02-01 07:54:00,
2013-02-01 00:55:00,41.9,26.5,30.10,North,0,0.0,0.0,54,0.00,,,0.00,WUHU216HW,2013-02-01 07:55:00,
2013-02-01 00:56:00,41.8,26.3,30.10,North,0,0.0,0.0,54,0.00,,,0.00,WUHU216HW,2013-02-01 07:56:00,
2013-02-01 00:59:00,41.8,26.3,30.10,North,0,0.0,0.0,54,0.00,,,0.00,WUHU216HW,2013-02-01 07:59:00,
2013-02-01 01:00:00,41.8,26.3,30.10,North,0,0.0,0.0,54,0.00,,,0.00,WUHU216HW,2013-02-01 08:00:00,
2013-02-01 01:01:00,41.8,26.3,30.10,North,0,0.0,0.0,54,0.00,,,0.00,WUHU216HW,2013-02-01 08:01:00,
2013-02-01 01:05:00,41.8,26.3,30.10,North,0,0.0,0.0,54,0.00,,,0.00,WUHU216HW,2013-02-01 08:05:00,
2013-02-01 01:06:00,41.8,26.3,30.10,North,0,0.0,0.0,54,0.00,,,0.00,WUHU216HW,2013-02-01 08:06:00,
2013-02-01 01:10:00,41.8,26.3,30.11,North,0,0.0,0.0,54,0.00,,,0.00,WUHU216HW,2013-02-01 08:10:00,
2013-02-01 01:11:00,41.8,26.7,30.11,North,0,0.0,0.0,55,0.00,,,0.00,WUHU216HW,2013-02-01 08:11:00,
2013-02-01 01:12:00,41.6,26.1,30.11,North,0,0.0,0.0,54,0.00,,,0.00,WUHU216HW,2013-02-01 08:12:00,
2013-02-01 01:16:00,41.6,26.6,30.11,North,0,0.0,0.0,55,0.00,,,0.00,WUHU216HW,2013-02-01 08:16:00,
2013-02-01 01:17:00,41.6,26.6,30.11,North,0,0.0,0.0,55,0.00,,,0.00,WUHU216HW,2013-02-01 08:17:00,
2013-02-01 01:18:00,41.6,26.6,30.11,North,0,0.0,0.0,55,0.00,,,0.00,WUHU216HW,2013-02-01 08:18:00,
2013-02-01 01:21:00,41.8,26.7,30.11,North,0,0.0,0.0,55,0.00,,,0.00,WUHU216HW,2013-02-01 08:21:00,
2013-02-01 01:23:00,41.8,26.7,30.11,North,0,0.0,0.0,55,0.00,,,0.00,WUHU216HW,2013-02-01 08:23:00,
2013-02-01 01:24:00,41.8,26.7,30.11,North,0,0.0,0.0,55,0.00,,,0.00,WUHU216HW,2013-02-01 08:24:00,
2013-02-01 01:27:00,41.9,26.9,30.11,North,0,0.0,0.0,55,0.00,,,0.00,WUHU216HW,2013-02-01 08:27:00,
2013-02-01 01:29:00,41.9,26.9,30.11,North,0,0.0,0.0,55,0.00,,,0.00,WUHU216HW,2013-02-01 08:29:00,
2013-02-01 01:30:00,41.8,26.7,30.10,North,0,0.0,0.0,55,0.00,,,0.00,WUHU216HW,2013-02-01 08:30:00,
2013-02-01 01:32:00,41.8,26.7,30.11,North,0,0.0,0.0,55,0.00,,,0.00,WUHU216HW,2013-02-01 08:32:00,
2013-02-01 01:34:00,41.8,26.7,30.11,North,0,0.0,0.0,55,0.00,,,0.00,WUHU216HW,2013-02-01 08:34:00,
2013-02-01 01:35:00,41.8,26.7,30.11,North,0,0.0,0.0,55,0.00,,,0.00,WUHU216HW,2013-02-01 08:35:00,
2013-02-01 01:39:00,41.6,26.6,30.11,North,0,0.0,0.0,55,0.00,,,0.00,WUHU216HW,2013-02-01 08:39:00,
2013-02-01 01:40:00,41.6,26.6,30.11,North,0,0.0,0.0,55,0.00,,,0.00,WUHU216HW,2013-02-01 08:40:00,
2013-02-01 01:45:00,41.4,26.4,30.11,North,0,0.0,0.0,55,0.00,,,0.00,WUHU216HW,2013-02-01 08:45:00,
2013-02-01 01:46:00,41.4,26.4,30.11,North,0,0.0,0.0,55,0.00,,,0.00,WUHU216HW,2013-02-01 08:46:00,
2013-02-01 01:50:00,40.9,26.3,30.11,North,0,0.0,0.0,56,0.00,,,0.00,WUHU216HW,2013-02-01 08:50:00,
2013-02-01 01:51:00,40.7,26.1,30.11,North,0,0.0,0.0,56,0.00,,,0.00,WUHU216HW,2013-02-01 08:51:00,
2013-02-01 01:55:00,40.3,26.2,30.11,North,0,0.0,0.0,57,0.00,,,0.00,WUHU216HW,2013-02-01 08:55:00,
2013-02-01 01:56:00,40.1,26.0,30.11,North,0,0.0,0.0,57,0.00,,,0.00,WUHU216HW,2013-02-01 08:56:00,
2013-02-01 01:57:00,40.1,26.0,30.11,North,0,0.0,0.0,57,0.00,,,0.00,WUHU216HW,2013-02-01 08:57:00,
2013-02-01 02:01:00,40.0,26.3,30.11,North,0,0.0,0.0,58,0.00,,,0.00,WUHU216HW,2013-02-01 09:01:00,
2013-02-01 02:02:00,40.0,26.3,30.11,North,0,0.0,0.0,58,0.00,,,0.00,WUHU216HW,2013-02-01 09:02:00,
2013-02-01 02:04:00,40.0,26.3,30.11,North,0,0.0,0.0,58,0.00,,,0.00,WUHU216HW,2013-02-01 09:04:00,
2013-02-01 02:07:00,40.0,26.3,30.11,North,0,0.0,0.0,58,0.00,,,0.00,WUHU216HW,2013-02-01 09:07:00,
2013-02-01 02:08:00,40.0,26.7,30.11,North,0,0.0,0.0,59,0.00,,,0.00,WUHU216HW,2013-02-01 09:08:00,
2013-02-01 02:09:00,40.0,26.7,30.11,North,0,0.0,0.0,59,0.00,,,0.00,WUHU216HW,2013-02-01 09:09:00,
2013-02-01 02:12:00,39.8,27.0,30.11,North,0,0.0,0.0,60,0.00,,,0.00,WUHU216HW,2013-02-01 09:12:00,
2013-02-01 02:13:00,39.8,27.0,30.11,North,0,0.0,0.0,60,0.00,,,0.00,WUHU216HW,2013-02-01 09:13:00,
2013-02-01 02:15:00,39.8,26.6,30.11,North,0,0.0,0.0,59,0.00,,,0.00,WUHU216HW,2013-02-01 09:15:00,
2013-02-01 02:17:00,40.0,26.7,30.11,North,0,0.0,0.0,59,0.00,,,0.00,WUHU216HW,2013-02-01 09:17:00,
2013-02-01 02:18:00,39.8,26.6,30.11,North,0,0.0,0.0,59,0.00,,,0.00,WUHU216HW,2013-02-01 09:18:00,
2013-02-01 02:19:00,40.0,26.7,30.11,North,0,0.0,0.0,59,0.00,,,0.00,WUHU216HW,2013-02-01 09:19:00,
2013-02-01 02:20:00,40.0,26.7,30.11,North,0,0.0,0.0,59,0.00,,,0.00,WUHU216HW,2013-02-01 09:20:00,
2013-02-01 02:23:00,40.0,26.7,30.11,North,0,0.0,0.0,59,0.00,,,0.00,WUHU216HW,2013-02-01 09:23:00,
2013-02-01 02:25:00,40.0,26.7,30.11,North,0,0.0,0.0,59,0.00,,,0.00,WUHU216HW,2013-02-01 09:25:00,
2013-02-01 02:26:00,40.0,26.7,30.11,North,0,0.0,0.0,59,0.00,,,0.00,WUHU216HW,2013-02-01 09:26:00,
2013-02-01 02:30:00,40.1,26.9,30.11,North,0,0.0,0.0,59,0.00,,,0.00,WUHU216HW,2013-02-01 09:30:00,
2013-02-01 02:31:00,40.1,26.9,30.11,North,0,0.0,0.0,59,0.00,,,0.00,WUHU216HW,2013-02-01 09:31:00,
2013-02-01 02:32:00,40.1,26.9,30.11,North,0,0.0,0.0,59,0.00,,,0.00,WUHU216HW,2013-02-01 09:32:00,
2013-02-01 02:35:00,40.1,26.9,30.11,North,0,0.0,0.0,59,0.00,,,0.00,WUHU216HW,2013-02-01 09:35:00,
2013-02-01 02:36:00,40.1,26.9,30.11,North,0,0.0,0.0,59,0.00,,,0.00,WUHU216HW,2013-02-01 09:36:00,
2013-02-01 02:37:00,40.1,26.9,30.11,North,0,0.0,0.0,59,0.00,,,0.00,WUHU216HW,2013-02-01 09:37:00,
2013-02-01 02:40:00,40.1,26.9,30.11,North,0,0.0,0.0,59,0.00,,,0.00,WUHU216HW,2013-02-01 09:40:00,
2013-02-01 02:42:00,40.0,26.7,30.11,North,0,0.0,0.0,59,0.00,,,0.00,WUHU216HW,2013-02-01 09:42:00,
2013-02-01 02:46:00,40.0,26.7,30.11,North,0,0.0,0.0,59,0.00,,,0.00,WUHU216HW,2013-02-01 09:46:00,
2013-02-01 02:47:00,39.8,26.6,30.11,North,0,0.0,0.0,59,0.00,,,0.00,WUHU216HW,2013-02-01 09:47:00,
2013-02-01 02:51:00,39.6,26.8,30.11,North,0,0.0,0.0,60,0.00,,,0.00,WUHU216HW,2013-02-01 09:51:00,
2013-02-01 02:52:00,39.6,26.8,30.11,North,0,0.0,0.0,60,0.00,,,0.00,WUHU216HW,2013-02-01 09:52:00,
2013-02-01 02:53:00,39.6,26.8,30.11,North,0,0.0,0.0,60,0.00,,,0.00,WUHU216HW,2013-02-01 09:53:00,
2013-02-01 02:56:00,39.2,26.5,30.11,North,0,0.0,0.0,60,0.00,,,0.00,WUHU216HW,2013-02-01 09:56:00,
2013-02-01 02:57:00,39.2,26.5,30.11,North,0,0.0,0.0,60,0.00,,,0.00,WUHU216HW,2013-02-01 09:57:00,
2013-02-01 02:58:00,39.2,26.5,30.11,North,0,0.0,0.0,60,0.00,,,0.00,WUHU216HW,2013-02-01 09:58:00,
2013-02-01 03:02:00,39.2,26.5,30.11,North,0,0.0,0.0,60,0.00,,,0.00,WUHU216HW,2013-02-01 10:02:00,
2013-02-01 03:03:00,39.2,26.8,30.11,North,0,0.0,0.0,61,0.00,,,0.00,WUHU216HW,2013-02-01 10:03:00,
2013-02-01 03:04:00,39.1,26.6,30.11,North,0,0.0,0.0,61,0.00,,,0.00,WUHU216HW,2013-02-01 10:04:00,
2013-02-01 03:08:00,38.9,26.6,30.11,North,0,0.0,0.0,61,0.00,,,0.00,WUHU216HW,2013-02-01 10:08:00,
2013-02-01 03:09:00,38.9,26.6,30.11,North,0,0.0,0.0,61,0.00,,,0.00,WUHU216HW,2013-02-01 10:09:00,
2013-02-01 03:14:00,38.9,26.9,30.11,North,0,0.0,0.0,62,0.00,,,0.00,WUHU216HW,2013-02-01 10:14:00,
2013-02-01 03:15:00,38.9,26.9,30.11,North,0,0.0,0.0,62,0.00,,,0.00,WUHU216HW,2013-02-01 10:15:00,
2013-02-01 03:19:00,38.7,26.7,30.11,North,0,0.0,0.0,62,0.00,,,0.00,WUHU216HW,2013-02-01 10:19:00,
2013-02-01 03:20:00,38.7,26.7,30.11,North,0,0.0,0.0,62,0.00,,,0.00,WUHU216HW,2013-02-01 10:20:00,
2013-02-01 03:24:00,38.7,26.7,30.11,North,0,0.0,0.0,62,0.00,,,0.00,WUHU216HW,2013-02-01 10:24:00,
2013-02-01 03:25:00,38.7,26.7,30.11,North,0,0.0,0.0,62,0.00,,,0.00,WUHU216HW,2013-02-01 10:25:00,
2013-02-01 03:26:00,38.7,26.7,30.11,North,0,0.0,0.0,62,0.00,,,0.00,WUHU216HW,2013-02-01 10:26:00,
2013-02-01 03:30:00,38.7,26.7,30.11,North,0,0.0,0.0,62,0.00,,,0.00,WUHU216HW,2013-02-01 10:30:00,
2013-02-01 03:31:00,38.7,26.7,30.11,North,0,0.0,0.0,62,0.00,,,0.00,WUHU216HW,2013-02-01 10:31:00,
2013-02-01 03:32:00,38.5,26.6,30.11,North,0,0.0,0.0,62,0.00,,,0.00,WUHU216HW,2013-02-01 10:32:00,
2013-02-01 03:36:00,38.5,26.6,30.11,North,0,0.0,0.0,62,0.00,,,0.00,WUHU216HW,2013-02-01 10:36:00,
2013-02-01 03:37:00,38.5,26.6,30.11,North,0,0.0,0.0,62,0.00,,,0.00,WUHU216HW,2013-02-01 10:37:00,
2013-02-01 03:38:00,38.5,26.6,30.11,North,0,0.0,0.0,62,0.00,,,0.00,WUHU216HW,2013-02-01 10:38:00,
2013-02-01 03:42:00,38.2,26.7,30.11,North,0,0.0,0.0,63,0.00,,,0.00,WUHU216HW,2013-02-01 10:42:00,
2013-02-01 03:43:00,38.2,26.7,30.11,North,0,0.0,0.0,63,0.00,,,0.00,WUHU216HW,2013-02-01 10:43:00,
2013-02-01 03:47:00,38.2,26.7,30.11,North,0,0.0,0.0,63,0.00,,,0.00,WUHU216HW,2013-02-01 10:47:00,
2013-02-01 03:48:00,38.2,26.7,30.11,North,0,0.0,0.0,63,0.00,,,0.00,WUHU216HW,2013-02-01 10:48:00,
2013-02-01 03:52:00,38.2,26.7,30.11,North,0,0.0,0.0,63,0.00,,,0.00,WUHU216HW,2013-02-01 10:52:00,
2013-02-01 03:53:00,38.2,26.7,30.11,North,0,0.0,0.0,63,0.00,,,0.00,WUHU216HW,2013-02-01 10:53:00,
2013-02-01 03:58:00,38.0,26.5,30.11,North,0,0.0,0.0,63,0.00,,,0.00,WUHU216HW,2013-02-01 10:58:00,
2013-02-01 03:59:00,38.0,26.5,30.11,North,0,0.0,0.0,63,0.00,,,0.00,WUHU216HW,2013-02-01 10:59:00,
2013-02-01 04:00:00,38.0,26.5,30.11,North,0,0.0,0.0,63,0.00,,,0.00,WUHU216HW,2013-02-01 11:00:00,
2013-02-01 04:03:00,37.8,26.3,30.11,North,0,0.0,0.0,63,0.00,,,0.00,WUHU216HW,2013-02-01 11:03:00,
2013-02-01 04:04:00,37.8,26.3,30.11,North,0,0.0,0.0,63,0.00,,,0.00,WUHU216HW,2013-02-01 11:04:00,
2013-02-01 04:05:00,37.8,26.3,30.11,North,0,0.0,0.0,63,0.00,,,0.00,WUHU216HW,2013-02-01 11:05:00,
2013-02-01 04:06:00,37.8,26.3,30.11,North,0,0.0,0.0,63,0.00,,,0.00,WUHU216HW,2013-02-01 11:06:00,
2013-02-01 04:09:00,37.8,26.3,30.11,North,0,0.0,0.0,63,0.00,,,0.00,WUHU216HW,2013-02-01 11:09:00,
2013-02-01 04:10:00,37.8,26.3,30.11,North,0,0.0,0.0,63,0.00,,,0.00,WUHU216HW,2013-02-01 11:10:00,
2013-02-01 04:11:00,37.8,26.3,30.11,North,0,0.0,0.0,63,0.00,,,0.00,WUHU216HW,2013-02-01 11:11:00,
2013-02-01 04:14:00,37.8,26.3,30.11,North,0,0.0,0.0,63,0.00,,,0.00,WUHU216HW,2013-02-01 11:14:00,
2013-02-01 04:17:00,37.6,26.1,30.11,North,0,0.0,0.0,63,0.00,,,0.00,WUHU216HW,2013-02-01 11:17:00,
2013-02-01 04:19:00,37.4,26.0,30.11,North,0,0.0,0.0,63,0.00,,,0.00,WUHU216HW,2013-02-01 11:19:00,
2013-02-01 04:20:00,37.4,26.0,30.11,North,0,0.0,0.0,63,0.00,,,0.00,WUHU216HW,2013-02-01 11:20:00,
2013-02-01 04:22:00,37.4,26.0,30.11,North,0,0.0,0.0,63,0.00,,,0.00,WUHU216HW,2013-02-01 11:22:00,
2013-02-01 04:23:00,37.4,26.0,30.11,North,0,0.0,0.0,63,0.00,,,0.00,WUHU216HW,2013-02-01 11:23:00,
2013-02-01 04:25:00,37.4,26.0,30.11,North,0,0.0,0.0,63,0.00,,,0.00,WUHU216HW,2013-02-01 11:25:00,
2013-02-01 04:28:00,37.4,26.0,30.10,North,0,0.0,0.0,63,0.00,,,0.00,WUHU216HW,2013-02-01 11:28:00,
2013-02-01 04:29:00,37.4,26.0,30.10,North,0,0.0,0.0,63,0.00,,,0.00,WUHU216HW,2013-02-01 11:29:00,
2013-02-01 04:30:00,37.4,26.0,30.11,North,0,0.0,0.0,63,0.00,,,0.00,WUHU216HW,2013-02-01 11:30:00,
2013-02-01 04:31:00,37.4,26.0,30.11,North,0,0.0,0.0,63,0.00,,,0.00,WUHU216HW,2013-02-01 11:31:00,
2013-02-01 04:34:00,37.4,26.0,30.11,North,0,0.0,0.0,63,0.00,,,0.00,WUHU216HW,2013-02-01 11:34:00,
2013-02-01 04:35:00,37.4,26.0,30.11,North,0,0.0,0.0,63,0.00,,,0.00,WUHU216HW,2013-02-01 11:35:00,
2013-02-01 04:36:00,37.4,26.0,30.11,North,0,0.0,0.0,63,0.00,,,0.00,WUHU216HW,2013-02-01 11:36:00,
2013-02-01 04:39:00,37.3,26.2,30.11,North,0,0.0,0.0,64,0.00,,,0.00,WUHU216HW,2013-02-01 11:39:00,
2013-02-01 04:40:00,37.3,26.2,30.11,North,0,0.0,0.0,64,0.00,,,0.00,WUHU216HW,2013-02-01 11:40:00,
2013-02-01 04:41:00,37.3,26.2,30.11,North,0,0.0,0.0,64,0.00,,,0.00,WUHU216HW,2013-02-01 11:41:00,
2013-02-01 04:42:00,37.3,26.2,30.11,North,0,0.0,0.0,64,0.00,,,0.00,WUHU216HW,2013-02-01 11:42:00,
2013-02-01 04:44:00,37.3,26.2,30.10,North,0,0.0,0.0,64,0.00,,,0.00,WUHU216HW,2013-02-01 11:44:00,
2013-02-01 04:46:00,37.3,26.2,30.11,North,0,0.0,0.0,64,0.00,,,0.00,WUHU216HW,2013-02-01 11:46:00,
2013-02-01 04:47:00,37.3,26.2,30.11,North,0,0.0,0.0,64,0.00,,,0.00,WUHU216HW,2013-02-01 11:47:00,
2013-02-01 04:48:00,37.1,26.0,30.11,North,0,0.0,0.0,64,0.00,,,0.00,WUHU216HW,2013-02-01 11:48:00,
2013-02-01 04:49:00,37.1,26.0,30.11,North,0,0.0,0.0,64,0.00,,,0.00,WUHU216HW,2013-02-01 11:49:00,
2013-02-01 04:51:00,37.1,26.0,30.11,North,0,0.0,0.0,64,0.00,,,0.00,WUHU216HW,2013-02-01 11:51:00,
2013-02-01 04:52:00,37.1,26.0,30.11,North,0,0.0,0.0,64,0.00,,,0.00,WUHU216HW,2013-02-01 11:52:00,
2013-02-01 04:53:00,37.1,26.0,30.11,North,0,0.0,0.0,64,0.00,,,0.00,WUHU216HW,2013-02-01 11:53:00,
2013-02-01 04:55:00,37.1,26.4,30.11,North,0,0.0,0.0,65,0.00,,,0.00,WUHU216HW,2013-02-01 11:55:00,
2013-02-01 04:56:00,37.1,26.4,30.11,North,0,0.0,0.0,65,0.00,,,0.00,WUHU216HW,2013-02-01 11:56:00,
2013-02-01 04:57:00,37.1,26.4,30.11,North,0,0.0,0.0,65,0.00,,,0.00,WUHU216HW,2013-02-01 11:57:00,
2013-02-01 04:58:00,37.1,26.4,30.11,North,0,0.0,0.0,65,0.00,,,0.00,WUHU216HW,2013-02-01 11:58:00,
2013-02-01 05:00:00,37.1,26.0,30.11,North,0,0.0,0.0,64,0.00,,,0.00,WUHU216HW,2013-02-01 12:00:00,
2013-02-01 05:02:00,37.1,26.0,30.11,North,0,0.0,0.0,64,0.00,,,0.00,WUHU216HW,2013-02-01 12:02:00,
2013-02-01 05:03:00,37.1,26.0,30.11,North,0,0.0,0.0,64,0.00,,,0.00,WUHU216HW,2013-02-01 12:03:00,
2013-02-01 05:05:00,37.1,26.4,30.11,North,0,0.0,0.0,65,0.00,,,0.00,WUHU216HW,2013-02-01 12:05:00,
2013-02-01 05:07:00,37.1,26.4,30.11,North,0,0.0,0.0,65,0.00,,,0.00,WUHU216HW,2013-02-01 12:07:00,
2013-02-01 05:08:00,37.1,26.4,30.11,North,0,0.0,0.0,65,0.00,,,0.00,WUHU216HW,2013-02-01 12:08:00,
2013-02-01 05:12:00,37.1,26.0,30.11,North,0,0.0,0.0,64,0.00,,,0.00,WUHU216HW,2013-02-01 12:12:00,
2013-02-01 05:14:00,36.9,26.2,30.11,North,0,0.0,0.0,65,0.00,,,0.00,WUHU216HW,2013-02-01 12:14:00,
2013-02-01 05:17:00,36.9,26.2,30.11,North,0,0.0,0.0,65,0.00,,,0.00,WUHU216HW,2013-02-01 12:17:00,
2013-02-01 05:18:00,36.7,26.0,30.11,North,0,0.0,0.0,65,0.00,,,0.00,WUHU216HW,2013-02-01 12:18:00,
2013-02-01 05:19:00,36.7,26.0,30.11,North,0,0.0,0.0,65,0.00,,,0.00,WUHU216HW,2013-02-01 12:19:00,
2013-02-01 05:22:00,36.7,26.0,30.11,North,0,0.0,0.0,65,0.00,,,0.00,WUHU216HW,2013-02-01 12:22:00,
2013-02-01 05:24:00,36.9,26.2,30.11,North,0,0.0,0.0,65,0.00,,,0.00,WUHU216HW,2013-02-01 12:24:00,
2013-02-01 05:25:00,36.9,26.2,30.11,North,0,0.0,0.0,65,0.00,,,0.00,WUHU216HW,2013-02-01 12:25:00,
2013-02-01 05:26:00,36.7,26.0,30.11,North,0,0.0,0.0,65,0.00,,,0.00,WUHU216HW,2013-02-01 12:26:00,
2013-02-01 05:27:00,36.7,26.5,30.11,North,0,0.0,0.0,66,0.00,,,0.00,WUHU216HW,2013-02-01 12:27:00,
2013-02-01 05:30:00,36.7,26.0,30.11,North,0,0.0,0.0,65,0.00,,,0.00,WUHU216HW,2013-02-01 12:30:00,
2013-02-01 05:31:00,36.5,26.3,30.11,North,0,0.0,0.0,66,0.00,,,0.00,WUHU216HW,2013-02-01 12:31:00,
2013-02-01 05:33:00,36.5,26.3,30.11,North,0,0.0,0.0,66,0.00,,,0.00,WUHU216HW,2013-02-01 12:33:00,
2013-02-01 05:35:00,36.5,26.3,30.11,North,0,0.0,0.0,66,0.00,,,0.00,WUHU216HW,2013-02-01 12:35:00,
2013-02-01 05:36:00,36.5,25.9,30.11,North,0,0.0,0.0,65,0.00,,,0.00,WUHU216HW,2013-02-01 12:36:00,
2013-02-01 05:39:00,36.5,25.9,30.11,North,0,0.0,0.0,65,0.00,,,0.00,WUHU216HW,2013-02-01 12:39:00,
2013-02-01 05:41:00,36.7,26.0,30.11,North,0,0.0,0.0,65,0.00,,,0.00,WUHU216HW,2013-02-01 12:41:00,
2013-02-01 05:42:00,36.7,26.0,30.11,North,0,0.0,0.0,65,0.00,,,0.00,WUHU216HW,2013-02-01 12:42:00,
2013-02-01 05:44:00,36.7,26.0,30.11,North,0,0.0,0.0,65,0.00,,,0.00,WUHU216HW,2013-02-01 12:44:00,
2013-02-01 05:46:00,36.7,26.0,30.11,North,0,0.0,0.0,65,0.00,,,0.00,WUHU216HW,2013-02-01 12:46:00,
2013-02-01 05:49:00,36.9,26.2,30.11,North,0,0.0,0.0,65,0.00,,,0.00,WUHU216HW,2013-02-01 12:49:00,
2013-02-01 05:50:00,36.9,26.2,30.11,North,0,0.0,0.0,65,0.00,,,0.00,WUHU216HW,2013-02-01 12:50:00,
2013-02-01 05:51:00,36.9,26.2,30.11,North,0,0.0,0.0,65,0.00,,,0.00,WUHU216HW,2013-02-01 12:51:00,
2013-02-01 05:52:00,36.9,26.2,30.11,North,0,0.0,0.0,65,0.00,,,0.00,WUHU216HW,2013-02-01 12:52:00,
2013-02-01 05:55:00,36.9,26.2,30.11,North,0,0.0,0.0,65,0.00,,,0.00,WUHU216HW,2013-02-01 12:55:00,
2013-02-01 05:57:00,36.9,26.2,30.11,North,0,0.0,0.0,65,0.00,,,0.00,WUHU216HW,2013-02-01 12:57:00,
2013-02-01 06:00:00,36.9,26.2,30.11,North,0,0.0,0.0,65,0.00,,,0.00,WUHU216HW,2013-02-01 13:00:00,
2013-02-01 06:02:00,36.9,26.2,30.11,North,0,0.0,0.0,65,0.00,,,0.00,WUHU216HW,2013-02-01 13:02:00,
2013-02-01 06:06:00,36.9,25.8,30.11,North,0,0.0,0.0,64,0.00,,,0.00,WUHU216HW,2013-02-01 13:06:00,
2013-02-01 06:07:00,36.7,26.0,30.11,North,0,0.0,0.0,65,0.00,,,0.00,WUHU216HW,2013-02-01 13:07:00,
2013-02-01 06:09:00,36.9,25.8,30.11,North,0,0.0,0.0,64,0.00,,,0.00,WUHU216HW,2013-02-01 13:09:00,
2013-02-01 06:12:00,36.7,26.0,30.11,North,0,0.0,0.0,65,0.00,,,0.00,WUHU216HW,2013-02-01 13:12:00,
2013-02-01 06:13:00,36.7,26.0,30.11,North,0,0.0,0.0,65,0.00,,,0.00,WUHU216HW,2013-02-01 13:13:00,
2013-02-01 06:15:00,36.5,25.9,30.11,North,0,0.0,0.0,65,0.00,,,0.00,WUHU216HW,2013-02-01 13:15:00,
2013-02-01 06:17:00,36.5,25.9,30.11,North,0,0.0,0.0,65,0.00,,,0.00,WUHU216HW,2013-02-01 13:17:00,
2013-02-01 06:18:00,36.4,25.8,30.11,North,0,0.0,0.0,65,0.00,,,0.00,WUHU216HW,2013-02-01 13:18:00,
2013-02-01 06:21:00,36.4,25.8,30.11,North,0,0.0,0.0,65,0.00,,,0.00,WUHU216HW,2013-02-01 13:21:00,
2013-02-01 06:22:00,36.4,25.8,30.11,North,0,0.0,0.0,65,0.00,,,0.00,WUHU216HW,2013-02-01 13:22:00,
2013-02-01 06:23:00,36.4,25.8,30.11,North,0,0.0,0.0,65,0.00,,,0.00,WUHU216HW,2013-02-01 13:23:00,
2013-02-01 06:24:00,36.4,25.8,30.11,North,0,0.0,0.0,65,0.00,,,0.00,WUHU216HW,2013-02-01 13:24:00,
2013-02-01 06:26:00,36.4,25.8,30.11,North,0,0.0,0.0,65,0.00,,,0.00,WUHU216HW,2013-02-01 13:26:00,
2013-02-01 06:28:00,36.2,25.6,30.11,North,0,0.0,0.0,65,0.00,,,0.00,WUHU216HW,2013-02-01 13:28:00,
2013-02-01 06:30:00,36.2,25.6,30.11,North,0,0.0,0.0,65,0.00,,,0.00,WUHU216HW,2013-02-01 13:30:00,
2013-02-01 06:32:00,36.0,25.8,30.11,North,0,0.0,0.0,66,0.00,,,0.00,WUHU216HW,2013-02-01 13:32:00,
2013-02-01 06:34:00,36.0,25.8,30.11,North,0,0.0,0.0,66,0.00,,,0.00,WUHU216HW,2013-02-01 13:34:00,
2013-02-01 06:35:00,36.0,25.8,30.11,North,0,0.0,0.0,66,0.00,,,0.00,WUHU216HW,2013-02-01 13:35:00,
2013-02-01 06:37:00,35.8,25.6,30.11,North,0,0.0,0.0,66,0.00,,,0.00,WUHU216HW,2013-02-01 13:37:00,
2013-02-01 06:39:00,35.8,25.6,30.11,North,0,0.0,0.0,66,0.00,,,0.00,WUHU216HW,2013-02-01 13:39:00,
2013-02-01 06:40:00,35.8,25.6,30.11,North,0,0.0,0.0,66,0.00,,,0.00,WUHU216HW,2013-02-01 13:40:00,
2013-02-01 06:42:00,35.6,25.4,30.11,North,0,0.0,0.0,66,0.00,,,0.00,WUHU216HW,2013-02-01 13:42:00,
2013-02-01 06:45:00,35.6,25.7,30.11,North,0,0.0,0.0,67,0.00,,,0.00,WUHU216HW,2013-02-01 13:45:00,
2013-02-01 06:46:00,35.6,25.7,30.11,North,0,0.0,0.0,67,0.00,,,0.00,WUHU216HW,2013-02-01 13:46:00,
2013-02-01 06:47:00,35.6,25.7,30.11,North,0,0.0,0.0,67,0.00,,,0.00,WUHU216HW,2013-02-01 13:47:00,
2013-02-01 06:50:00,35.6,25.7,30.11,North,0,0.0,0.0,67,0.00,,,0.00,WUHU216HW,2013-02-01 13:50:00,
2013-02-01 06:51:00,35.6,25.7,30.11,North,0,0.0,0.0,67,0.00,,,0.00,WUHU216HW,2013-02-01 13:51:00,
2013-02-01 06:54:00,35.5,25.6,30.11,North,0,0.0,0.0,67,0.00,,,0.00,WUHU216HW,2013-02-01 13:54:00,
2013-02-01 06:56:00,35.6,25.7,30.11,North,0,0.0,0.0,67,0.00,,,0.00,WUHU216HW,2013-02-01 13:56:00,
2013-02-01 06:57:00,35.6,25.7,30.11,North,0,0.0,0.0,67,0.00,,,0.00,WUHU216HW,2013-02-01 13:57:00,
2013-02-01 07:00:00,35.6,25.7,30.11,North,0,0.0,0.0,67,0.00,,,0.00,WUHU216HW,2013-02-01 14:00:00,
2013-02-01 07:02:00,35.5,25.6,30.11,North,0,0.0,0.0,67,0.00,,,0.00,WUHU216HW,2013-02-01 14:02:00,
2013-02-01 07:03:00,35.5,25.6,30.11,North,0,0.0,0.0,67,0.00,,,0.00,WUHU216HW,2013-02-01 14:03:00,
2013-02-01 07:05:00,35.5,25.6,30.11,North,0,0.0,0.0,67,0.00,,,0.00,WUHU216HW,2013-02-01 14:05:00,
2013-02-01 07:07:00,35.5,25.6,30.11,North,0,0.0,0.0,67,0.00,,,0.00,WUHU216HW,2013-02-01 14:07:00,
2013-02-01 07:08:00,35.5,25.6,30.11,North,0,0.0,0.0,67,0.00,,,0.00,WUHU216HW,2013-02-01 14:08:00,
2013-02-01 07:11:00,35.3,25.4,30.11,North,0,0.0,0.0,67,0.00,,,0.00,WUHU216HW,2013-02-01 14:11:00,
2013-02-01 07:12:00,35.3,25.4,30.12,North,0,0.0,0.0,67,0.00,,,0.00,WUHU216HW,2013-02-01 14:12:00,
2013-02-01 07:13:00,35.3,25.4,30.12,North,0,0.0,0.0,67,0.00,,,0.00,WUHU216HW,2013-02-01 14:13:00,
2013-02-01 07:14:00,35.3,25.4,30.12,North,0,0.0,0.0,67,0.00,,,0.00,WUHU216HW,2013-02-01 14:14:00,
2013-02-01 07:17:00,35.3,25.4,30.12,North,0,0.0,0.0,67,0.00,,,0.00,WUHU216HW,2013-02-01 14:17:00,
2013-02-01 07:18:00,35.1,25.2,30.12,North,0,0.0,0.0,67,0.00,,,0.00,WUHU216HW,2013-02-01 14:18:00,
2013-02-01 07:19:00,35.1,25.2,30.12,North,0,0.0,0.0,67,0.00,,,0.00,WUHU216HW,2013-02-01 14:19:00,
2013-02-01 07:23:00,35.1,25.6,30.12,North,0,0.0,0.0,68,0.00,,,0.00,WUHU216HW,2013-02-01 14:23:00,
2013-02-01 07:24:00,35.1,25.6,30.12,North,0,0.0,0.0,68,0.00,,,0.00,WUHU216HW,2013-02-01 14:24:00,
2013-02-01 07:25:00,35.1,25.6,30.12,North,0,0.0,0.0,68,0.00,,,0.00,WUHU216HW,2013-02-01 14:25:00,
2013-02-01 07:28:00,35.3,25.7,30.13,North,0,0.0,0.0,68,0.00,,,0.00,WUHU216HW,2013-02-01 14:28:00,
2013-02-01 07:29:00,35.3,26.1,30.13,North,0,0.0,0.0,69,0.00,,,0.00,WUHU216HW,2013-02-01 14:29:00,
2013-02-01 07:30:00,35.3,25.7,30.13,North,0,0.0,0.0,68,0.00,,,0.00,WUHU216HW,2013-02-01 14:30:00,
2013-02-01 07:31:00,35.3,25.7,30.13,North,0,0.0,0.0,68,0.00,,,0.00,WUHU216HW,2013-02-01 14:31:00,
2013-02-01 07:34:00,35.3,25.7,30.13,North,0,0.0,0.0,68,0.00,,,0.00,WUHU216HW,2013-02-01 14:34:00,
2013-02-01 07:35:00,35.3,25.7,30.13,North,0,0.0,0.0,68,0.00,,,0.00,WUHU216HW,2013-02-01 14:35:00,
2013-02-01 07:36:00,35.3,25.7,30.13,North,0,0.0,0.0,68,0.00,,,0.00,WUHU216HW,2013-02-01 14:36:00,
2013-02-01 07:40:00,35.1,25.6,30.13,North,0,0.0,0.0,68,0.00,,,0.00,WUHU216HW,2013-02-01 14:40:00,
2013-02-01 07:41:00,35.1,25.6,30.13,North,0,0.0,0.0,68,0.00,,,0.00,WUHU216HW,2013-02-01 14:41:00,
2013-02-01 07:45:00,35.3,25.7,30.13,North,0,0.0,0.0,68,0.00,,,0.00,WUHU216HW,2013-02-01 14:45:00,
2013-02-01 07:46:00,35.1,25.6,30.13,North,0,0.0,0.0,68,0.00,,,0.00,WUHU216HW,2013-02-01 14:46:00,
2013-02-01 07:51:00,35.3,26.5,30.14,North,0,0.0,0.0,70,0.00,,,0.00,WUHU216HW,2013-02-01 14:51:00,
2013-02-01 07:52:00,35.5,26.6,30.14,North,0,0.0,0.0,70,0.00,,,0.00,WUHU216HW,2013-02-01 14:52:00,
2013-02-01 07:56:00,35.6,26.1,30.14,North,0,0.0,0.0,68,0.00,,,0.00,WUHU216HW,2013-02-01 14:56:00,
2013-02-01 07:57:00,35.6,26.1,30.14,North,0,0.0,0.0,68,0.00,,,0.00,WUHU216HW,2013-02-01 14:57:00,
2013-02-01 08:01:00,35.8,26.3,30.14,North,0,0.0,0.0,68,0.00,,,0.00,WUHU216HW,2013-02-01 15:01:00,
2013-02-01 08:02:00,35.8,26.3,30.14,North,0,0.0,0.0,68,0.00,,,0.00,WUHU216HW,2013-02-01 15:02:00,
2013-02-01 08:07:00,36.0,26.5,30.14,North,0,0.0,0.0,68,0.00,,,0.00,WUHU216HW,2013-02-01 15:07:00,
2013-02-01 08:08:00,36.2,26.7,30.14,North,0,0.0,0.0,68,0.00,,,0.00,WUHU216HW,2013-02-01 15:08:00,
2013-02-01 08:12:00,36.4,26.8,30.15,North,0,0.0,0.0,68,0.00,,,0.00,WUHU216HW,2013-02-01 15:12:00,
2013-02-01 08:13:00,36.5,27.0,30.14,North,0,0.0,0.0,68,0.00,,,0.00,WUHU216HW,2013-02-01 15:13:00,
2013-02-01 08:14:00,36.7,27.2,30.14,North,0,0.0,0.0,68,0.00,,,0.00,WUHU216HW,2013-02-01 15:14:00,
2013-02-01 08:18:00,37.1,27.2,30.15,North,0,0.0,0.0,67,0.00,,,0.00,WUHU216HW,2013-02-01 15:18:00,
2013-02-01 08:19:00,37.3,27.3,30.15,North,0,0.0,0.0,67,0.00,,,0.00,WUHU216HW,2013-02-01 15:19:00,
2013-02-01 08:23:00,37.6,27.6,30.15,North,0,0.0,0.0,67,0.00,,,0.00,WUHU216HW,2013-02-01 15:23:00,
2013-02-01 08:24:00,37.8,27.8,30.15,North,0,0.0,0.0,67,0.00,,,0.00,WUHU216HW,2013-02-01 15:24:00,
2013-02-01 08:28:00,38.0,27.6,30.15,North,0,0.0,0.0,66,0.00,,,0.00,WUHU216HW,2013-02-01 15:28:00,
2013-02-01 08:29:00,38.2,27.7,30.15,North,0,0.0,0.0,66,0.00,,,0.00,WUHU216HW,2013-02-01 15:29:00,
2013-02-01 08:30:00,38.2,27.7,30.15,North,0,0.0,0.0,66,0.00,,,0.00,WUHU216HW,2013-02-01 15:30:00,
2013-02-01 08:33:00,38.3,27.9,30.15,North,0,0.0,0.0,66,0.00,,,0.00,WUHU216HW,2013-02-01 15:33:00,
2013-02-01 08:34:00,38.3,27.9,30.15,North,0,0.0,0.0,66,0.00,,,0.00,WUHU216HW,2013-02-01 15:34:00,
2013-02-01 08:35:00,38.3,27.9,30.15,North,0,0.0,0.0,66,0.00,,,0.00,WUHU216HW,2013-02-01 15:35:00,
2013-02-01 08:39:00,38.5,27.7,30.15,North,0,0.0,0.0,65,0.00,,,0.00,WUHU216HW,2013-02-01 15:39:00,
2013-02-01 08:40:00,38.5,27.7,30.15,North,0,0.0,0.0,65,0.00,,,0.00,WUHU216HW,2013-02-01 15:40:00,
2013-02-01 08:41:00,38.5,27.7,30.15,North,0,0.0,0.0,65,0.00,,,0.00,WUHU216HW,2013-02-01 15:41:00,
2013-02-01 08:44:00,38.7,27.9,30.15,North,0,0.0,0.0,65,0.00,,,0.00,WUHU216HW,2013-02-01 15:44:00,
2013-02-01 08:45:00,38.7,27.9,30.15,North,0,0.0,0.0,65,0.00,,,0.00,WUHU216HW,2013-02-01 15:45:00,
2013-02-01 08:47:00,38.9,28.0,30.15,North,0,0.0,0.0,65,0.00,,,0.00,WUHU216HW,2013-02-01 15:47:00,
2013-02-01 08:49:00,38.9,27.6,30.15,North,0,0.0,0.0,64,0.00,,,0.00,WUHU216HW,2013-02-01 15:49:00,
2013-02-01 08:50:00,39.1,28.2,30.15,North,0,0.0,0.0,65,0.00,,,0.00,WUHU216HW,2013-02-01 15:50:00,
2013-02-01 08:52:00,39.2,28.0,30.15,North,0,0.0,0.0,64,0.00,,,0.00,WUHU216HW,2013-02-01 15:52:00,
2013-02-01 08:55:00,39.4,28.2,30.15,North,0,0.0,0.0,64,0.00,,,0.00,WUHU216HW,2013-02-01 15:55:00,
2013-02-01 08:56:00,39.4,28.2,30.15,North,0,0.0,0.0,64,0.00,,,0.00,WUHU216HW,2013-02-01 15:56:00,
2013-02-01 08:57:00,39.6,28.4,30.16,North,0,0.0,0.0,64,0.00,,,0.00,WUHU216HW,2013-02-01 15:57:00,
2013-02-01 09:00:00,40.0,28.7,30.16,North,0,0.0,0.0,64,0.00,,,0.00,WUHU216HW,2013-02-01 16:00:00,
2013-02-01 09:01:00,39.8,28.5,30.16,North,0,0.0,0.0,64,0.00,,,0.00,WUHU216HW,2013-02-01 16:01:00,
2013-02-01 09:04:00,40.1,28.9,30.16,North,0,0.0,0.0,64,0.00,,,0.00,WUHU216HW,2013-02-01 16:04:00,
2013-02-01 09:05:00,40.3,29.1,30.15,North,0,0.0,0.0,64,0.00,,,0.00,WUHU216HW,2013-02-01 16:05:00,
2013-02-01 09:06:00,40.3,29.1,30.15,North,0,0.0,0.0,64,0.00,,,0.00,WUHU216HW,2013-02-01 16:06:00,
2013-02-01 09:10:00,40.7,29.4,30.16,North,0,0.0,0.0,64,0.00,,,0.00,WUHU216HW,2013-02-01 16:10:00,
2013-02-01 09:11:00,40.7,29.1,30.16,North,0,0.0,0.0,63,0.00,,,0.00,WUHU216HW,2013-02-01 16:11:00,
2013-02-01 09:16:00,41.2,29.5,30.16,North,0,0.0,0.0,63,0.00,,,0.00,WUHU216HW,2013-02-01 16:16:00,
2013-02-01 09:17:00,41.4,29.7,30.16,North,0,0.0,0.0,63,0.00,,,0.00,WUHU216HW,2013-02-01 16:17:00,
2013-02-01 09:18:00,41.4,29.7,30.16,North,0,0.0,0.0,63,0.00,,,0.00,WUHU216HW,2013-02-01 16:18:00,
2013-02-01 09:21:00,41.6,29.9,30.16,North,0,0.0,0.0,63,0.00,,,0.00,WUHU216HW,2013-02-01 16:21:00,
2013-02-01 09:22:00,41.8,29.7,30.16,North,0,0.0,0.0,62,0.00,,,0.00,WUHU216HW,2013-02-01 16:22:00,
2013-02-01 09:23:00,41.8,29.7,30.16,North,0,0.0,0.0,62,0.00,,,0.00,WUHU216HW,2013-02-01 16:23:00,
2013-02-01 09:26:00,41.9,29.9,30.16,North,0,0.0,0.0,62,0.00,,,0.00,WUHU216HW,2013-02-01 16:26:00,
2013-02-01 09:28:00,41.9,29.9,30.16,North,0,0.0,0.0,62,0.00,,,0.00,WUHU216HW,2013-02-01 16:28:00,
2013-02-01 09:29:00,42.1,30.0,30.16,North,0,0.0,0.0,62,0.00,,,0.00,WUHU216HW,2013-02-01 16:29:00,
2013-02-01 09:31:00,42.1,29.6,30.16,North,0,0.0,0.0,61,0.00,,,0.00,WUHU216HW,2013-02-01 16:31:00,
2013-02-01 09:33:00,42.3,29.8,30.16,North,0,0.0,0.0,61,0.00,,,0.00,WUHU216HW,2013-02-01 16:33:00,
2013-02-01 09:34:00,42.3,29.8,30.16,North,0,0.0,0.0,61,0.00,,,0.00,WUHU216HW,2013-02-01 16:34:00,
2013-02-01 09:36:00,42.5,30.0,30.16,North,0,0.0,0.0,61,0.00,,,0.00,WUHU216HW,2013-02-01 16:36:00,
2013-02-01 09:39:00,42.7,30.2,30.16,North,0,0.0,0.0,61,0.00,,,0.00,WUHU216HW,2013-02-01 16:39:00,
2013-02-01 09:40:00,42.8,30.2,30.16,North,0,0.0,0.0,61,0.00,,,0.00,WUHU216HW,2013-02-01 16:40:00,
2013-02-01 09:42:00,43.0,30.4,30.16,North,0,0.0,0.0,61,0.00,,,0.00,WUHU216HW,2013-02-01 16:42:00,
2013-02-01 09:44:00,43.2,30.2,30.15,North,0,0.0,0.0,60,0.00,,,0.00,WUHU216HW,2013-02-01 16:44:00,
2013-02-01 09:45:00,43.4,30.4,30.15,North,0,0.0,0.0,60,0.00,,,0.00,WUHU216HW,2013-02-01 16:45:00,
2013-02-01 09:46:00,43.6,30.6,30.15,North,0,0.0,0.0,60,0.00,,,0.00,WUHU216HW,2013-02-01 16:46:00,
2013-02-01 09:48:00,43.6,30.6,30.15,North,0,0.0,0.0,60,0.00,,,0.00,WUHU216HW,2013-02-01 16:48:00,
2013-02-01 09:49:00,43.7,30.8,30.15,North,0,0.0,0.0,60,0.00,,,0.00,WUHU216HW,2013-02-01 16:49:00,
2013-02-01 09:50:00,43.9,30.5,30.15,North,0,0.0,0.0,59,0.00,,,0.00,WUHU216HW,2013-02-01 16:50:00,
2013-02-01 09:51:00,43.9,30.5,30.15,North,0,0.0,0.0,59,0.00,,,0.00,WUHU216HW,2013-02-01 16:51:00,
2013-02-01 09:53:00,44.1,30.7,30.15,North,0,0.0,0.0,59,0.00,,,0.00,WUHU216HW,2013-02-01 16:53:00,
2013-02-01 09:54:00,44.3,30.9,30.15,North,0,0.0,0.0,59,0.00,,,0.00,WUHU216HW,2013-02-01 16:54:00,
2013-02-01 09:57:00,44.5,30.6,30.15,North,0,0.0,0.0,58,0.00,,,0.00,WUHU216HW,2013-02-01 16:57:00,
2013-02-01 09:58:00,44.5,30.6,30.15,North,0,0.0,0.0,58,0.00,,,0.00,WUHU216HW,2013-02-01 16:58:00,
2013-02-01 10:00:00,44.6,30.8,30.15,North,0,0.0,0.0,58,0.00,,,0.00,WUHU216HW,2013-02-01 17:00:00,
2013-02-01 10:03:00,45.0,30.7,30.15,North,0,0.0,0.0,57,0.00,,,0.00,WUHU216HW,2013-02-01 17:03:00,
2013-02-01 10:04:00,45.0,30.7,30.15,North,0,0.0,0.0,57,0.00,,,0.00,WUHU216HW,2013-02-01 17:04:00,
2013-02-01 10:05:00,45.0,30.7,30.15,North,0,0.0,0.0,57,0.00,,,0.00,WUHU216HW,2013-02-01 17:05:00,
2013-02-01 10:08:00,45.5,31.1,30.15,North,0,0.0,0.0,57,0.00,,,0.00,WUHU216HW,2013-02-01 17:08:00,
2013-02-01 10:09:00,45.5,31.1,30.15,North,0,0.0,0.0,57,0.00,,,0.00,WUHU216HW,2013-02-01 17:09:00,
2013-02-01 10:11:00,45.7,31.3,30.15,North,0,0.0,0.0,57,0.00,,,0.00,WUHU216HW,2013-02-01 17:11:00,
2013-02-01 10:13:00,45.9,31.5,30.15,North,0,0.0,0.0,57,0.00,,,0.00,WUHU216HW,2013-02-01 17:13:00,
2013-02-01 10:14:00,46.1,31.6,30.15,North,0,0.0,0.0,57,0.00,,,0.00,WUHU216HW,2013-02-01 17:14:00,
2013-02-01 10:15:00,46.1,31.6,30.15,North,0,0.0,0.0,57,0.00,,,0.00,WUHU216HW,2013-02-01 17:15:00,
2013-02-01 10:16:00,46.3,31.8,30.15,North,0,0.0,0.0,57,0.00,,,0.00,WUHU216HW,2013-02-01 17:16:00,
2013-02-01 10:19:00,46.4,31.5,30.15,North,0,0.0,0.0,56,0.00,,,0.00,WUHU216HW,2013-02-01 17:19:00,
2013-02-01 10:20:00,46.4,31.5,30.15,North,0,0.0,0.0,56,0.00,,,0.00,WUHU216HW,2013-02-01 17:20:00,
2013-02-01 10:21:00,46.6,31.7,30.15,North,0,0.0,0.0,56,0.00,,,0.00,WUHU216HW,2013-02-01 17:21:00,
2013-02-01 10:24:00,47.2,31.8,30.15,North,0,0.0,0.0,55,0.00,,,0.00,WUHU216HW,2013-02-01 17:24:00,
2013-02-01 10:25:00,47.2,31.8,30.15,North,0,0.0,0.0,55,0.00,,,0.00,WUHU216HW,2013-02-01 17:25:00,
2013-02-01 10:26:00,47.2,31.3,30.15,North,0,0.0,0.0,54,0.00,,,0.00,WUHU216HW,2013-02-01 17:26:00,
2013-02-01 10:29:00,47.5,31.6,30.15,North,0,0.0,0.0,54,0.00,,,0.00,WUHU216HW,2013-02-01 17:29:00,
2013-02-01 10:30:00,47.7,31.8,30.15,North,0,0.0,0.0,54,0.00,,,0.00,WUHU216HW,2013-02-01 17:30:00,
2013-02-01 10:31:00,47.7,31.8,30.15,North,0,0.0,0.0,54,0.00,,,0.00,WUHU216HW,2013-02-01 17:31:00,
2013-02-01 10:32:00,47.9,32.0,30.15,North,0,0.0,0.0,54,0.00,,,0.00,WUHU216HW,2013-02-01 17:32:00,
2013-02-01 10:35:00,48.1,32.1,30.15,North,0,0.0,0.0,54,0.00,,,0.00,WUHU216HW,2013-02-01 17:35:00,
2013-02-01 10:36:00,48.4,32.5,30.15,North,0,0.0,0.0,54,0.00,,,0.00,WUHU216HW,2013-02-01 17:36:00,
2013-02-01 10:38:00,48.6,32.7,30.15,North,0,0.0,0.0,54,0.00,,,0.00,WUHU216HW,2013-02-01 17:38:00,
2013-02-01 10:40:00,48.8,32.3,30.15,North,0,0.0,0.0,53,0.00,,,0.00,WUHU216HW,2013-02-01 17:40:00,
2013-02-01 10:41:00,49.0,32.5,30.15,North,0,0.0,0.0,53,0.00,,,0.00,WUHU216HW,2013-02-01 17:41:00,
2013-02-01 10:43:00,49.3,32.9,30.15,North,0,0.0,0.0,53,0.00,,,0.00,WUHU216HW,2013-02-01 17:43:00,
2013-02-01 10:46:00,49.5,32.6,30.15,North,0,0.0,0.0,52,0.00,,,0.00,WUHU216HW,2013-02-01 17:46:00,
2013-02-01 10:47:00,49.5,32.6,30.15,North,0,0.0,0.0,52,0.00,,,0.00,WUHU216HW,2013-02-01 17:47:00,
2013-02-01 10:48:00,49.9,32.9,30.15,North,0,0.0,0.0,52,0.00,,,0.00,WUHU216HW,2013-02-01 17:48:00,
2013-02-01 10:51:00,50.2,32.9,30.15,North,0,0.0,0.0,51,0.00,,,0.00,WUHU216HW,2013-02-01 17:51:00,
2013-02-01 10:52:00,50.2,32.9,30.15,North,0,0.0,0.0,51,0.00,,,0.00,WUHU216HW,2013-02-01 17:52:00,
2013-02-01 10:54:00,50.6,33.1,30.15,North,0,0.0,0.0,51,0.00,,,0.00,WUHU216HW,2013-02-01 17:54:00,
2013-02-01 10:57:00,50.9,33.0,30.15,North,0,0.0,0.0,50,0.00,,,0.00,WUHU216HW,2013-02-01 17:57:00,
2013-02-01 10:59:00,51.1,33.2,30.15,North,0,0.0,0.0,50,0.00,,,0.00,WUHU216HW,2013-02-01 17:59:00,
2013-02-01 11:00:00,51.1,33.2,30.15,North,0,0.0,0.0,50,0.00,,,0.00,WUHU216HW,2013-02-01 18:00:00,
2013-02-01 11:03:00,51.3,32.8,30.15,North,0,0.0,0.0,49,0.00,,,0.00,WUHU216HW,2013-02-01 18:03:00,
2013-02-01 11:04:00,51.5,32.4,30.15,North,0,0.0,0.0,48,0.00,,,0.00,WUHU216HW,2013-02-01 18:04:00,
2013-02-01 11:06:00,51.5,32.4,30.15,North,0,0.0,0.0,48,0.00,,,0.00,WUHU216HW,2013-02-01 18:06:00,
2013-02-01 11:08:00,51.3,32.2,30.15,North,0,0.0,0.0,48,0.00,,,0.00,WUHU216HW,2013-02-01 18:08:00,
2013-02-01 11:10:00,51.5,32.4,30.15,North,0,0.0,0.0,48,0.00,,,0.00,WUHU216HW,2013-02-01 18:10:00,
2013-02-01 11:12:00,51.5,32.4,30.15,North,0,0.0,0.0,48,0.00,,,0.00,WUHU216HW,2013-02-01 18:12:00,
2013-02-01 11:13:00,51.5,32.4,30.15,North,0,0.0,0.0,48,0.00,,,0.00,WUHU216HW,2013-02-01 18:13:00,
2013-02-01 11:14:00,51.7,32.6,30.15,North,0,0.0,0.0,48,0.00,,,0.00,WUHU216HW,2013-02-01 18:14:00,
2013-02-01 11:15:00,51.7,32.6,30.15,North,0,0.0,0.0,48,0.00,,,0.00,WUHU216HW,2013-02-01 18:15:00,
2013-02-01 11:17:00,52.0,31.2,30.15,North,0,0.0,0.0,45,0.00,,,0.00,WUHU216HW,2013-02-01 18:17:00,
2013-02-01 11:18:00,52.0,31.2,30.15,North,0,0.0,0.0,45,0.00,,,0.00,WUHU216HW,2013-02-01 18:18:00,
2013-02-01 11:20:00,52.0,31.2,30.14,North,0,0.0,0.0,45,0.00,,,0.00,WUHU216HW,2013-02-01 18:20:00,
2013-02-01 11:22:00,52.0,30.1,30.15,North,0,0.0,0.0,43,0.00,,,0.00,WUHU216HW,2013-02-01 18:22:00,
2013-02-01 11:24:00,52.2,30.8,30.14,North,0,0.0,0.0,44,0.00,,,0.00,WUHU216HW,2013-02-01 18:24:00,
2013-02-01 11:26:00,52.2,31.4,30.14,North,0,0.0,0.0,45,0.00,,,0.00,WUHU216HW,2013-02-01 18:26:00,
2013-02-01 11:27:00,52.4,31.5,30.14,North,0,0.0,0.0,45,0.00,,,0.00,WUHU216HW,2013-02-01 18:27:00,
2013-02-01 11:28:00,52.4,31.5,30.14,North,0,0.0,0.0,45,0.00,,,0.00,WUHU216HW,2013-02-01 18:28:00,
2013-02-01 11:29:00,52.6,31.7,30.14,North,0,0.0,0.0,45,0.00,,,0.00,WUHU216HW,2013-02-01 18:29:00,
2013-02-01 11:32:00,52.9,32.1,30.14,North,0,0.0,0.0,45,0.00,,,0.00,WUHU216HW,2013-02-01 18:32:00,
2013-02-01 11:33:00,52.9,32.1,30.14,North,0,0.0,0.0,45,0.00,,,0.00,WUHU216HW,2013-02-01 18:33:00,
2013-02-01 11:35:00,53.5,32.0,30.14,North,0,0.0,0.0,44,0.00,,,0.00,WUHU216HW,2013-02-01 18:35:00,
2013-02-01 11:37:00,53.5,32.5,30.14,North,0,0.0,0.0,45,0.00,,,0.00,WUHU216HW,2013-02-01 18:37:00,
2013-02-01 11:39:00,53.6,32.7,30.14,North,0,0.0,0.0,45,0.00,,,0.00,WUHU216HW,2013-02-01 18:39:00,
2013-02-01 11:41:00,53.6,32.1,30.14,North,0,0.0,0.0,44,0.00,,,0.00,WUHU216HW,2013-02-01 18:41:00,
2013-02-01 11:43:00,53.8,32.3,30.14,North,0,0.0,0.0,44,0.00,,,0.00,WUHU216HW,2013-02-01 18:43:00,
2013-02-01 11:44:00,53.8,32.3,30.14,North,0,0.0,0.0,44,0.00,,,0.00,WUHU216HW,2013-02-01 18:44:00,
2013-02-01 11:45:00,53.8,32.3,30.14,North,0,0.0,0.0,44,0.00,,,0.00,WUHU216HW,2013-02-01 18:45:00,
2013-02-01 11:47:00,53.8,32.3,30.14,North,0,0.0,0.0,44,0.00,,,0.00,WUHU216HW,2013-02-01 18:47:00,
2013-02-01 11:49:00,53.8,32.9,30.14,North,0,0.0,0.0,45,0.00,,,0.00,WUHU216HW,2013-02-01 18:49:00,
2013-02-01 11:51:00,53.8,32.9,30.14,North,0,0.0,0.0,45,0.00,,,0.00,WUHU216HW,2013-02-01 18:51:00,
2013-02-01 11:52:00,54.0,32.4,30.14,North,0,0.0,0.0,44,0.00,,,0.00,WUHU216HW,2013-02-01 18:52:00,
2013-02-01 11:54:00,54.0,32.4,30.13,North,0,0.0,0.0,44,0.00,,,0.00,WUHU216HW,2013-02-01 18:54:00,
2013-02-01 11:56:00,54.0,32.4,30.13,North,0,0.0,0.0,44,0.00,,,0.00,WUHU216HW,2013-02-01 18:56:00,
2013-02-01 11:57:00,54.0,32.4,30.13,North,0,0.0,0.0,44,0.00,,,0.00,WUHU216HW,2013-02-01 18:57:00,
2013-02-01 11:58:00,54.0,32.4,30.13,North,0,0.0,0.0,44,0.00,,,0.00,WUHU216HW,2013-02-01 18:58:00,
2013-02-01 11:59:00,54.2,32.6,30.13,North,0,0.0,0.0,44,0.00,,,0.00,WUHU216HW,2013-02-01 18:59:00,
2013-02-01 12:02:00,54.4,32.2,30.13,North,0,0.0,0.0,43,0.00,,,0.00,WUHU216HW,2013-02-01 19:02:00,
2013-02-01 12:03:00,54.4,32.2,30.13,North,0,0.0,0.0,43,0.00,,,0.00,WUHU216HW,2013-02-01 19:03:00,
2013-02-01 12:05:00,54.4,32.2,30.13,North,0,0.0,0.0,43,0.00,,,0.00,WUHU216HW,2013-02-01 19:05:00,
2013-02-01 12:07:00,54.7,33.1,30.13,North,0,0.0,0.0,44,0.00,,,0.00,WUHU216HW,2013-02-01 19:07:00,
2013-02-01 12:08:00,54.9,33.2,30.13,North,0,0.0,0.0,44,0.00,,,0.00,WUHU216HW,2013-02-01 19:08:00,
2013-02-01 12:10:00,55.1,32.9,30.13,North,0,0.0,0.0,43,0.00,,,0.00,WUHU216HW,2013-02-01 19:10:00,
2013-02-01 12:12:00,55.3,33.0,30.13,North,0,0.0,0.0,43,0.00,,,0.00,WUHU216HW,2013-02-01 19:12:00,
2013-02-01 12:16:00,55.6,33.3,30.13,North,0,0.0,0.0,43,0.00,,,0.00,WUHU216HW,2013-02-01 19:16:00,
2013-02-01 12:17:00,55.8,32.4,30.12,North,0,0.0,0.0,41,0.00,,,0.00,WUHU216HW,2013-02-01 19:17:00,
2013-02-01 12:18:00,55.8,32.4,30.12,North,0,0.0,0.0,41,0.00,,,0.00,WUHU216HW,2013-02-01 19:18:00,
2013-02-01 12:21:00,55.6,32.8,30.12,North,0,0.0,0.0,42,0.00,,,0.00,WUHU216HW,2013-02-01 19:21:00,
2013-02-01 12:22:00,55.8,32.9,30.12,North,0,0.0,0.0,42,0.00,,,0.00,WUHU216HW,2013-02-01 19:22:00,
2013-02-01 12:23:00,55.8,32.9,30.12,North,0,0.0,0.0,42,0.00,,,0.00,WUHU216HW,2013-02-01 19:23:00,
2013-02-01 12:26:00,55.8,32.4,30.12,North,0,0.0,0.0,41,0.00,,,0.00,WUHU216HW,2013-02-01 19:26:00,
2013-02-01 12:27:00,55.8,32.4,30.12,North,0,0.0,0.0,41,0.00,,,0.00,WUHU216HW,2013-02-01 19:27:00,
2013-02-01 12:28:00,55.8,32.4,30.12,North,0,0.0,0.0,41,0.00,,,0.00,WUHU216HW,2013-02-01 19:28:00,
2013-02-01 12:31:00,55.8,32.4,30.11,North,0,0.0,0.0,41,0.00,,,0.00,WUHU216HW,2013-02-01 19:31:00,
2013-02-01 12:33:00,55.8,32.4,30.11,North,0,0.0,0.0,41,0.00,,,0.00,WUHU216HW,2013-02-01 19:33:00,
2013-02-01 12:34:00,55.8,32.4,30.12,North,0,0.0,0.0,41,0.00,,,0.00,WUHU216HW,2013-02-01 19:34:00,
2013-02-01 12:37:00,56.0,32.6,30.11,North,0,0.0,0.0,41,0.00,,,0.00,WUHU216HW,2013-02-01 19:37:00,
2013-02-01 12:38:00,56.0,32.6,30.11,North,0,0.0,0.0,41,0.00,,,0.00,WUHU216HW,2013-02-01 19:38:00,
2013-02-01 12:40:00,56.2,32.1,30.11,North,0,0.0,0.0,40,0.00,,,0.00,WUHU216HW,2013-02-01 19:40:00,
2013-02-01 12:43:00,56.2,32.1,30.11,North,0,0.0,0.0,40,0.00,,,0.00,WUHU216HW,2013-02-01 19:43:00,
2013-02-01 12:44:00,56.2,32.1,30.11,North,0,0.0,0.0,40,0.00,,,0.00,WUHU216HW,2013-02-01 19:44:00,
2013-02-01 12:46:00,56.3,32.3,30.11,North,0,0.0,0.0,40,0.00,,,0.00,WUHU216HW,2013-02-01 19:46:00,
2013-02-01 12:47:00,56.3,32.3,30.11,North,0,0.0,0.0,40,0.00,,,0.00,WUHU216HW,2013-02-01 19:47:00,
2013-02-01 12:50:00,56.7,33.2,30.11,North,0,0.0,0.0,41,0.00,,,0.00,WUHU216HW,2013-02-01 19:50:00,
2013-02-01 12:51:00,56.9,33.4,30.11,North,0,0.0,0.0,41,0.00,,,0.00,WUHU216HW,2013-02-01 19:51:00,
2013-02-01 12:53:00,57.1,32.2,30.10,North,0,0.0,0.0,39,0.00,,,0.00,WUHU216HW,2013-02-01 19:53:00,
2013-02-01 12:55:00,57.1,32.2,30.10,North,0,0.0,0.0,39,0.00,,,0.00,WUHU216HW,2013-02-01 19:55:00,
2013-02-01 12:58:00,57.1,32.2,30.10,North,0,0.0,0.0,39,0.00,,,0.00,WUHU216HW,2013-02-01 19:58:00,
2013-02-01 12:59:00,57.1,32.2,30.10,North,0,0.0,0.0,39,0.00,,,0.00,WUHU216HW,2013-02-01 19:59:00,
2013-02-01 13:00:00,57.1,32.2,30.10,North,0,0.0,0.0,39,0.00,,,0.00,WUHU216HW,2013-02-01 20:00:00,
2013-02-01 13:01:00,57.1,32.2,30.10,North,0,0.0,0.0,39,0.00,,,0.00,WUHU216HW,2013-02-01 20:01:00,
2013-02-01 13:04:00,57.1,32.9,30.10,North,0,0.0,0.0,40,0.00,,,0.00,WUHU216HW,2013-02-01 20:04:00,
2013-02-01 13:05:00,57.1,32.2,30.10,North,0,0.0,0.0,39,0.00,,,0.00,WUHU216HW,2013-02-01 20:05:00,
2013-02-01 13:06:00,57.1,32.2,30.10,North,0,0.0,0.0,39,0.00,,,0.00,WUHU216HW,2013-02-01 20:06:00,
2013-02-01 13:07:00,57.2,32.4,30.10,North,0,0.0,0.0,39,0.00,,,0.00,WUHU216HW,2013-02-01 20:07:00,
2013-02-01 13:09:00,57.2,32.4,30.10,North,0,0.0,0.0,39,0.00,,,0.00,WUHU216HW,2013-02-01 20:09:00,
2013-02-01 13:11:00,57.2,32.4,30.10,North,0,0.0,0.0,39,0.00,,,0.00,WUHU216HW,2013-02-01 20:11:00,
2013-02-01 13:13:00,57.4,32.6,30.09,North,0,0.0,0.0,39,0.00,,,0.00,WUHU216HW,2013-02-01 20:13:00,
2013-02-01 13:15:00,57.6,32.0,30.09,North,0,0.0,0.0,38,0.00,,,0.00,WUHU216HW,2013-02-01 20:15:00,
2013-02-01 13:16:00,57.8,33.0,30.09,North,0,0.0,0.0,39,0.00,,,0.00,WUHU216HW,2013-02-01 20:16:00,
2013-02-01 13:18:00,57.8,32.2,30.09,North,0,0.0,0.0,38,0.00,,,0.00,WUHU216HW,2013-02-01 20:18:00,
2013-02-01 13:20:00,57.8,33.0,30.09,North,0,0.0,0.0,39,0.00,,,0.00,WUHU216HW,2013-02-01 20:20:00,
2013-02-01 13:21:00,58.0,32.4,30.09,North,0,0.0,0.0,38,0.00,,,0.00,WUHU216HW,2013-02-01 20:21:00,
2013-02-01 13:23:00,58.0,32.4,30.09,North,0,0.0,0.0,38,0.00,,,0.00,WUHU216HW,2013-02-01 20:23:00,
2013-02-01 13:25:00,58.1,31.9,30.09,North,0,0.0,0.0,37,0.00,,,0.00,WUHU216HW,2013-02-01 20:25:00,
2013-02-01 13:27:00,58.1,31.9,30.09,North,0,0.0,0.0,37,0.00,,,0.00,WUHU216HW,2013-02-01 20:27:00,
2013-02-01 13:28:00,58.1,31.2,30.09,North,0,0.0,0.0,36,0.00,,,0.00,WUHU216HW,2013-02-01 20:28:00,
2013-02-01 13:30:00,58.3,32.0,30.09,North,0,0.0,0.0,37,0.00,,,0.00,WUHU216HW,2013-02-01 20:30:00,
2013-02-01 13:32:00,58.3,32.0,30.09,North,0,0.0,0.0,37,0.00,,,0.00,WUHU216HW,2013-02-01 20:32:00,
2013-02-01 13:33:00,58.3,32.0,30.09,North,0,0.0,0.0,37,0.00,,,0.00,WUHU216HW,2013-02-01 20:33:00,
2013-02-01 13:34:00,58.5,32.1,30.09,North,0,0.0,0.0,37,0.00,,,0.00,WUHU216HW,2013-02-01 20:34:00,
2013-02-01 13:36:00,58.5,32.1,30.09,North,0,0.0,0.0,37,0.00,,,0.00,WUHU216HW,2013-02-01 20:36:00,
2013-02-01 13:37:00,58.5,31.4,30.09,North,0,0.0,0.0,36,0.00,,,0.00,WUHU216HW,2013-02-01 20:37:00,
2013-02-01 13:38:00,58.5,31.4,30.09,North,0,0.0,0.0,36,0.00,,,0.00,WUHU216HW,2013-02-01 20:38:00,
2013-02-01 13:40:00,58.7,31.6,30.09,North,0,0.0,0.0,36,0.00,,,0.00,WUHU216HW,2013-02-01 20:40:00,
2013-02-01 13:42:00,58.7,31.6,30.09,North,0,0.0,0.0,36,0.00,,,0.00,WUHU216HW,2013-02-01 20:42:00,
2013-02-01 13:45:00,58.7,31.6,30.09,North,0,0.0,0.0,36,0.00,,,0.00,WUHU216HW,2013-02-01 20:45:00,
2013-02-01 13:46:00,58.7,31.6,30.08,North,0,0.0,0.0,36,0.00,,,0.00,WUHU216HW,2013-02-01 20:46:00,
2013-02-01 13:47:00,58.9,31.8,30.09,North,0,0.0,0.0,36,0.00,,,0.00,WUHU216HW,2013-02-01 20:47:00,
2013-02-01 13:48:00,58.9,31.8,30.08,North,0,0.0,0.0,36,0.00,,,0.00,WUHU216HW,2013-02-01 20:48:00,
2013-02-01 13:51:00,59.0,32.0,30.08,North,0,0.0,0.0,36,0.00,,,0.00,WUHU216HW,2013-02-01 20:51:00,
2013-02-01 13:52:00,59.0,32.0,30.08,North,0,0.0,0.0,36,0.00,,,0.00,WUHU216HW,2013-02-01 20:52:00,
2013-02-01 13:54:00,59.2,30.7,30.08,North,0,0.0,0.0,34,0.00,,,0.00,WUHU216HW,2013-02-01 20:54:00,
2013-02-01 13:56:00,59.2,31.4,30.08,North,0,0.0,0.0,35,0.00,,,0.00,WUHU216HW,2013-02-01 20:56:00,
2013-02-01 13:57:00,59.2,30.0,30.08,North,0,0.0,0.0,33,0.00,,,0.00,WUHU216HW,2013-02-01 20:57:00,
2013-02-01 13:58:00,59.2,30.7,30.08,North,0,0.0,0.0,34,0.00,,,0.00,WUHU216HW,2013-02-01 20:58:00,
2013-02-01 14:00:00,59.2,30.7,30.08,North,0,0.0,0.0,34,0.00,,,0.00,WUHU216HW,2013-02-01 21:00:00,
2013-02-01 14:02:00,59.2,30.7,30.08,North,0,0.0,0.0,34,0.00,,,0.00,WUHU216HW,2013-02-01 21:02:00,
2013-02-01 14:03:00,59.4,30.9,30.07,North,0,0.0,0.0,34,0.00,,,0.00,WUHU216HW,2013-02-01 21:03:00,
2013-02-01 14:06:00,59.4,30.9,30.07,North,0,0.0,0.0,34,0.00,,,0.00,WUHU216HW,2013-02-01 21:06:00,
2013-02-01 14:07:00,59.4,30.9,30.07,North,0,0.0,0.0,34,0.00,,,0.00,WUHU216HW,2013-02-01 21:07:00,
2013-02-01 14:09:00,59.6,30.2,30.07,North,0,0.0,0.0,33,0.00,,,0.00,WUHU216HW,2013-02-01 21:09:00,
2013-02-01 14:12:00,59.8,31.2,30.07,North,0,0.0,0.0,34,0.00,,,0.00,WUHU216HW,2013-02-01 21:12:00,
2013-02-01 14:13:00,59.8,31.2,30.07,North,0,0.0,0.0,34,0.00,,,0.00,WUHU216HW,2013-02-01 21:13:00,
2013-02-01 14:14:00,59.8,30.4,30.07,North,0,0.0,0.0,33,0.00,,,0.00,WUHU216HW,2013-02-01 21:14:00,
2013-02-01 14:17:00,59.8,30.4,30.07,North,0,0.0,0.0,33,0.00,,,0.00,WUHU216HW,2013-02-01 21:17:00,
2013-02-01 14:18:00,59.8,30.4,30.07,North,0,0.0,0.0,33,0.00,,,0.00,WUHU216HW,2013-02-01 21:18:00,
2013-02-01 14:22:00,59.9,30.6,30.07,North,0,0.0,0.0,33,0.00,,,0.00,WUHU216HW,2013-02-01 21:22:00,
2013-02-01 14:23:00,59.9,30.6,30.07,North,0,0.0,0.0,33,0.00,,,0.00,WUHU216HW,2013-02-01 21:23:00,
2013-02-01 14:28:00,59.9,30.6,30.07,North,0,0.0,0.0,33,0.00,,,0.00,WUHU216HW,2013-02-01 21:28:00,
2013-02-01 14:29:00,60.1,30.7,30.07,North,0,0.0,0.0,33,0.00,,,0.00,WUHU216HW,2013-02-01 21:29:00,
2013-02-01 14:33:00,60.1,28.6,30.07,North,0,0.0,0.0,30,0.00,,,0.00,WUHU216HW,2013-02-01 21:33:00,
2013-02-01 14:34:00,60.1,28.6,30.07,North,0,0.0,0.0,30,0.00,,,0.00,WUHU216HW,2013-02-01 21:34:00,
2013-02-01 14:39:00,60.1,30.0,30.07,North,0,0.0,0.0,32,0.00,,,0.00,WUHU216HW,2013-02-01 21:39:00,
2013-02-01 14:44:00,60.3,29.4,30.07,North,0,0.0,0.0,31,0.00,,,0.00,WUHU216HW,2013-02-01 21:44:00,
2013-02-01 14:45:00,60.3,27.8,30.07,North,0,0.0,0.0,29,0.00,,,0.00,WUHU216HW,2013-02-01 21:45:00,
2013-02-01 14:49:00,60.5,28.9,30.07,North,0,0.0,0.0,30,0.00,,,0.00,WUHU216HW,2013-02-01 21:49:00,
2013-02-01 14:50:00,60.5,27.9,30.07,North,0,0.0,0.0,29,0.00,,,0.00,WUHU216HW,2013-02-01 21:50:00,
2013-02-01 14:51:00,60.5,27.9,30.07,North,0,0.0,0.0,29,0.00,,,0.00,WUHU216HW,2013-02-01 21:51:00,
2013-02-01 14:54:00,60.5,27.9,30.07,North,0,0.0,0.0,29,0.00,,,0.00,WUHU216HW,2013-02-01 21:54:00,
2013-02-01 14:56:00,60.5,28.9,30.07,North,0,0.0,0.0,30,0.00,,,0.00,WUHU216HW,2013-02-01 21:56:00,
2013-02-01 14:57:00,60.5,27.9,30.07,North,0,0.0,0.0,29,0.00,,,0.00,WUHU216HW,2013-02-01 21:57:00,
2013-02-01 15:00:00,60.5,28.9,30.07,North,0,0.0,0.0,30,0.00,,,0.00,WUHU216HW,2013-02-01 22:00:00,
2013-02-01 15:01:00,60.7,29.0,30.07,North,0,0.0,0.0,30,0.00,,,0.00,WUHU216HW,2013-02-01 22:01:00,
2013-02-01 15:02:00,60.5,28.9,30.07,North,0,0.0,0.0,30,0.00,,,0.00,WUHU216HW,2013-02-01 22:02:00,
2013-02-01 15:03:00,60.7,29.0,30.07,North,0,0.0,0.0,30,0.00,,,0.00,WUHU216HW,2013-02-01 22:03:00,
2013-02-01 15:05:00,60.7,29.0,30.07,North,0,0.0,0.0,30,0.00,,,0.00,WUHU216HW,2013-02-01 22:05:00,
2013-02-01 15:06:00,60.7,29.0,30.07,North,0,0.0,0.0,30,0.00,,,0.00,WUHU216HW,2013-02-01 22:06:00,
2013-02-01 15:07:00,60.8,29.2,30.07,North,0,0.0,0.0,30,0.00,,,0.00,WUHU216HW,2013-02-01 22:07:00,
2013-02-01 15:09:00,60.8,28.2,30.07,North,0,0.0,0.0,29,0.00,,,0.00,WUHU216HW,2013-02-01 22:09:00,
2013-02-01 15:11:00,60.8,28.2,30.06,North,0,0.0,0.0,29,0.00,,,0.00,WUHU216HW,2013-02-01 22:11:00,
2013-02-01 15:12:00,60.8,29.2,30.07,North,0,0.0,0.0,30,0.00,,,0.00,WUHU216HW,2013-02-01 22:12:00,
2013-02-01 15:13:00,60.8,28.2,30.06,North,0,0.0,0.0,29,0.00,,,0.00,WUHU216HW,2013-02-01 22:13:00,
2013-02-01 15:14:00,60.8,28.2,30.07,North,0,0.0,0.0,29,0.00,,,0.00,WUHU216HW,2013-02-01 22:14:00,
2013-02-01 15:16:00,60.8,29.2,30.06,North,0,0.0,0.0,30,0.00,,,0.00,WUHU216HW,2013-02-01 22:16:00,
2013-02-01 15:18:00,60.8,29.2,30.07,North,0,0.0,0.0,30,0.00,,,0.00,WUHU216HW,2013-02-01 22:18:00,
2013-02-01 15:19:00,60.8,29.2,30.07,North,0,0.0,0.0,30,0.00,,,0.00,WUHU216HW,2013-02-01 22:19:00,
2013-02-01 15:22:00,60.8,29.2,30.06,North,0,0.0,0.0,30,0.00,,,0.00,WUHU216HW,2013-02-01 22:22:00,
2013-02-01 15:23:00,60.8,29.2,30.06,North,0,0.0,0.0,30,0.00,,,0.00,WUHU216HW,2013-02-01 22:23:00,
2013-02-01 15:24:00,61.0,30.1,30.06,North,0,0.0,0.0,31,0.00,,,0.00,WUHU216HW,2013-02-01 22:24:00,
2013-02-01 15:28:00,61.0,29.4,30.06,North,0,0.0,0.0,30,0.00,,,0.00,WUHU216HW,2013-02-01 22:28:00,
2013-02-01 15:29:00,61.0,29.4,30.06,North,0,0.0,0.0,30,0.00,,,0.00,WUHU216HW,2013-02-01 22:29:00,
2013-02-01 15:30:00,61.0,29.4,30.06,North,0,0.0,0.0,30,0.00,,,0.00,WUHU216HW,2013-02-01 22:30:00,
2013-02-01 15:34:00,61.2,28.5,30.06,North,0,0.0,0.0,29,0.00,,,0.00,WUHU216HW,2013-02-01 22:34:00,
2013-02-01 15:35:00,61.2,29.5,30.06,North,0,0.0,0.0,30,0.00,,,0.00,WUHU216HW,2013-02-01 22:35:00,
2013-02-01 15:36:00,61.2,29.5,30.06,North,0,0.0,0.0,30,0.00,,,0.00,WUHU216HW,2013-02-01 22:36:00,
2013-02-01 15:39:00,61.0,29.4,30.06,North,0,0.0,0.0,30,0.00,,,0.00,WUHU216HW,2013-02-01 22:39:00,
2013-02-01 15:40:00,61.2,29.5,30.06,North,0,0.0,0.0,30,0.00,,,0.00,WUHU216HW,2013-02-01 22:40:00,
2013-02-01 15:41:00,61.2,30.3,30.06,North,0,0.0,0.0,31,0.00,,,0.00,WUHU216HW,2013-02-01 22:41:00,
2013-02-01 15:44:00,61.2,30.3,30.06,North,0,0.0,0.0,31,0.00,,,0.00,WUHU216HW,2013-02-01 22:44:00,
2013-02-01 15:45:00,61.2,29.5,30.06,North,0,0.0,0.0,30,0.00,,,0.00,WUHU216HW,2013-02-01 22:45:00,
2013-02-01 15:46:00,61.2,29.5,30.06,North,0,0.0,0.0,30,0.00,,,0.00,WUHU216HW,2013-02-01 22:46:00,
2013-02-01 15:47:00,61.2,29.5,30.06,North,0,0.0,0.0,30,0.00,,,0.00,WUHU216HW,2013-02-01 22:47:00,
2013-02-01 15:49:00,61.4,29.6,30.06,North,0,0.0,0.0,30,0.00,,,0.00,WUHU216HW,2013-02-01 22:49:00,
2013-02-01 15:51:00,61.4,29.6,30.06,North,0,0.0,0.0,30,0.00,,,0.00,WUHU216HW,2013-02-01 22:51:00,
2013-02-01 15:52:00,61.4,29.6,30.06,North,0,0.0,0.0,30,0.00,,,0.00,WUHU216HW,2013-02-01 22:52:00,
2013-02-01 15:55:00,61.4,29.6,30.06,North,0,0.0,0.0,30,0.00,,,0.00,WUHU216HW,2013-02-01 22:55:00,
2013-02-01 15:56:00,61.4,29.6,30.06,North,0,0.0,0.0,30,0.00,,,0.00,WUHU216HW,2013-02-01 22:56:00,
2013-02-01 15:57:00,61.6,28.9,30.06,North,0,0.0,0.0,29,0.00,,,0.00,WUHU216HW,2013-02-01 22:57:00,
2013-02-01 15:58:00,61.6,28.9,30.06,North,0,0.0,0.0,29,0.00,,,0.00,WUHU216HW,2013-02-01 22:58:00,
2013-02-01 16:01:00,61.6,29.8,30.06,North,0,0.0,0.0,30,0.00,,,0.00,WUHU216HW,2013-02-01 23:01:00,
2013-02-01 16:02:00,61.4,29.6,30.06,North,0,0.0,0.0,30,0.00,,,0.00,WUHU216HW,2013-02-01 23:02:00,
2013-02-01 16:03:00,61.4,29.6,30.06,North,0,0.0,0.0,30,0.00,,,0.00,WUHU216HW,2013-02-01 23:03:00,
2013-02-01 16:05:00,61.6,29.8,30.06,North,0,0.0,0.0,30,0.00,,,0.00,WUHU216HW,2013-02-01 23:05:00,
2013-02-01 16:06:00,61.6,29.8,30.06,North,0,0.0,0.0,30,0.00,,,0.00,WUHU216HW,2013-02-01 23:06:00,
2013-02-01 16:07:00,61.6,29.8,30.06,North,0,0.0,0.0,30,0.00,,,0.00,WUHU216HW,2013-02-01 23:07:00,
2013-02-01 16:09:00,61.6,29.8,30.06,North,0,0.0,0.0,30,0.00,,,0.00,WUHU216HW,2013-02-01 23:09:00,
2013-02-01 16:10:00,61.4,29.6,30.06,North,0,0.0,0.0,30,0.00,,,0.00,WUHU216HW,2013-02-01 23:10:00,
2013-02-01 16:13:00,61.6,30.5,30.06,North,0,0.0,0.0,31,0.00,,,0.00,WUHU216HW,2013-02-01 23:13:00,
2013-02-01 16:14:00,61.6,30.5,30.06,North,0,0.0,0.0,31,0.00,,,0.00,WUHU216HW,2013-02-01 23:14:00,
2013-02-01 16:16:00,61.6,29.8,30.06,North,0,0.0,0.0,30,0.00,,,0.00,WUHU216HW,2013-02-01 23:16:00,
2013-02-01 16:18:00,61.6,30.5,30.06,North,0,0.0,0.0,31,0.00,,,0.00,WUHU216HW,2013-02-01 23:18:00,
2013-02-01 16:19:00,61.6,30.5,30.06,North,0,0.0,0.0,31,0.00,,,0.00,WUHU216HW,2013-02-01 23:19:00,
2013-02-01 16:20:00,61.6,30.5,30.06,North,0,0.0,0.0,31,0.00,,,0.00,WUHU216HW,2013-02-01 23:20:00,
2013-02-01 16:22:00,61.6,30.5,30.06,North,0,0.0,0.0,31,0.00,,,0.00,WUHU216HW,2013-02-01 23:22:00,
2013-02-01 16:23:00,61.6,29.8,30.06,North,0,0.0,0.0,30,0.00,,,0.00,WUHU216HW,2013-02-01 23:23:00,
2013-02-01 16:24:00,61.6,29.8,30.06,North,0,0.0,0.0,30,0.00,,,0.00,WUHU216HW,2013-02-01 23:24:00,
2013-02-01 16:26:00,61.6,28.9,30.06,North,0,0.0,0.0,29,0.00,,,0.00,WUHU216HW,2013-02-01 23:26:00,
2013-02-01 16:28:00,61.6,29.8,30.06,North,0,0.0,0.0,30,0.00,,,0.00,WUHU216HW,2013-02-01 23:28:00,
2013-02-01 16:29:00,61.6,29.8,30.06,North,0,0.0,0.0,30,0.00,,,0.00,WUHU216HW,2013-02-01 23:29:00,
2013-02-01 16:31:00,61.6,29.8,30.06,North,0,0.0,0.0,30,0.00,,,0.00,WUHU216HW,2013-02-01 23:31:00,
2013-02-01 16:34:00,61.6,29.8,30.06,North,0,0.0,0.0,30,0.00,,,0.00,WUHU216HW,2013-02-01 23:34:00,
2013-02-01 16:35:00,61.6,27.9,30.06,North,0,0.0,0.0,28,0.00,,,0.00,WUHU216HW,2013-02-01 23:35:00,
2013-02-01 16:36:00,61.6,27.9,30.06,North,0,0.0,0.0,28,0.00,,,0.00,WUHU216HW,2013-02-01 23:36:00,
2013-02-01 16:39:00,61.6,28.9,30.06,North,0,0.0,0.0,29,0.00,,,0.00,WUHU216HW,2013-02-01 23:39:00,
2013-02-01 16:40:00,61.6,28.9,30.06,North,0,0.0,0.0,29,0.00,,,0.00,WUHU216HW,2013-02-01 23:40:00,
2013-02-01 16:41:00,61.6,28.9,30.06,North,0,0.0,0.0,29,0.00,,,0.00,WUHU216HW,2013-02-01 23:41:00,
2013-02-01 16:45:00,61.6,28.9,30.06,North,0,0.0,0.0,29,0.00,,,0.00,WUHU216HW,2013-02-01 23:45:00,
2013-02-01 16:46:00,61.6,28.9,30.06,North,0,0.0,0.0,29,0.00,,,0.00,WUHU216HW,2013-02-01 23:46:00,
2013-02-01 16:47:00,61.6,28.9,30.06,North,0,0.0,0.0,29,0.00,,,0.00,WUHU216HW,2013-02-01 23:47:00,
2013-02-01 16:51:00,61.6,28.9,30.06,North,0,0.0,0.0,29,0.00,,,0.00,WUHU216HW,2013-02-01 23:51:00,
2013-02-01 16:53:00,61.6,28.9,30.06,North,0,0.0,0.0,29,0.00,,,0.00,WUHU216HW,2013-02-01 23:53:00,
2013-02-01 16:56:00,61.6,28.9,30.06,North,0,0.0,0.0,29,0.00,,,0.00,WUHU216HW,2013-02-01 23:56:00,
2013-02-01 16:57:00,61.6,28.9,30.06,North,0,0.0,0.0,29,0.00,,,0.00,WUHU216HW,2013-02-01 23:57:00,
2013-02-01 16:59:00,61.6,29.8,30.06,North,0,0.0,0.0,30,0.00,,,0.00,WUHU216HW,2013-02-01 23:59:00,
2013-02-01 17:01:00,61.6,29.8,30.06,North,0,0.0,0.0,30,0.00,,,0.00,WUHU216HW,2013-02-02 00:01:00,
2013-02-01 17:02:00,61.6,29.8,30.06,North,0,0.0,0.0,30,0.00,,,0.00,WUHU216HW,2013-02-02 00:02:00,
2013-02-01 17:04:00,61.4,30.3,30.06,North,0,0.0,0.0,31,0.00,,,0.00,WUHU216HW,2013-02-02 00:04:00,
2013-02-01 17:06:00,61.4,30.3,30.06,North,0,0.0,0.0,31,0.00,,,0.00,WUHU216HW,2013-02-02 00:06:00,
2013-02-01 17:07:00,61.4,30.3,30.06,North,0,0.0,0.0,31,0.00,,,0.00,WUHU216HW,2013-02-02 00:07:00,
2013-02-01 17:08:00,61.4,30.3,30.06,North,0,0.0,0.0,31,0.00,,,0.00,WUHU216HW,2013-02-02 00:08:00,
2013-02-01 17:11:00,61.4,29.6,30.06,North,0,0.0,0.0,30,0.00,,,0.00,WUHU216HW,2013-02-02 00:11:00,
2013-02-01 17:12:00,61.2,29.5,30.06,North,0,0.0,0.0,30,0.00,,,0.00,WUHU216HW,2013-02-02 00:12:00,
2013-02-01 17:13:00,61.2,29.5,30.06,North,0,0.0,0.0,30,0.00,,,0.00,WUHU216HW,2013-02-02 00:13:00,
2013-02-01 17:16:00,61.2,29.5,30.05,North,0,0.0,0.0,30,0.00,,,0.00,WUHU216HW,2013-02-02 00:16:00,
2013-02-01 17:18:00,61.2,30.3,30.06,North,0,0.0,0.0,31,0.00,,,0.00,WUHU216HW,2013-02-02 00:18:00,
2013-02-01 17:21:00,61.2,30.3,30.06,North,0,0.0,0.0,31,0.00,,,0.00,WUHU216HW,2013-02-02 00:21:00,
2013-02-01 17:23:00,61.2,30.3,30.05,North,0,0.0,0.0,31,0.00,,,0.00,WUHU216HW,2013-02-02 00:23:00,
2013-02-01 17:24:00,61.2,30.3,30.05,North,0,0.0,0.0,31,0.00,,,0.00,WUHU216HW,2013-02-02 00:24:00,
2013-02-01 17:26:00,61.0,30.8,30.05,North,0,0.0,0.0,32,0.00,,,0.00,WUHU216HW,2013-02-02 00:26:00,
2013-02-01 17:27:00,61.0,30.8,30.05,North,0,0.0,0.0,32,0.00,,,0.00,WUHU216HW,2013-02-02 00:27:00,
2013-02-01 17:29:00,61.0,30.8,30.05,North,0,0.0,0.0,32,0.00,,,0.00,WUHU216HW,2013-02-02 00:29:00,
2013-02-01 17:31:00,60.8,30.6,30.05,North,0,0.0,0.0,32,0.00,,,0.00,WUHU216HW,2013-02-02 00:31:00,
2013-02-01 17:32:00,60.8,30.6,30.05,North,0,0.0,0.0,32,0.00,,,0.00,WUHU216HW,2013-02-02 00:32:00,
2013-02-01 17:35:00,60.5,30.3,30.05,North,0,0.0,0.0,32,0.00,,,0.00,WUHU216HW,2013-02-02 00:35:00,
2013-02-01 17:37:00,60.1,30.7,30.06,North,0,0.0,0.0,33,0.00,,,0.00,WUHU216HW,2013-02-02 00:37:00,
2013-02-01 17:38:00,59.9,30.6,30.06,North,0,0.0,0.0,33,0.00,,,0.00,WUHU216HW,2013-02-02 00:38:00,
2013-02-01 17:40:00,59.8,30.4,30.06,North,0,0.0,0.0,33,0.00,,,0.00,WUHU216HW,2013-02-02 00:40:00,
2013-02-01 17:41:00,59.4,30.2,30.05,North,0,0.0,0.0,33,0.00,,,0.00,WUHU216HW,2013-02-02 00:41:00,
2013-02-01 17:42:00,59.4,30.9,30.05,North,0,0.0,0.0,34,0.00,,,0.00,WUHU216HW,2013-02-02 00:42:00,
2013-02-01 17:44:00,59.0,30.5,30.05,North,0,0.0,0.0,34,0.00,,,0.00,WUHU216HW,2013-02-02 00:44:00,
2013-02-01 17:46:00,58.9,30.3,30.06,North,0,0.0,0.0,34,0.00,,,0.00,WUHU216HW,2013-02-02 00:46:00,
2013-02-01 17:47:00,58.7,30.3,30.05,North,0,0.0,0.0,34,0.00,,,0.00,WUHU216HW,2013-02-02 00:47:00,
2013-02-01 17:48:00,58.7,30.3,30.05,North,0,0.0,0.0,34,0.00,,,0.00,WUHU216HW,2013-02-02 00:48:00,
2013-02-01 17:49:00,58.7,30.3,30.06,North,0,0.0,0.0,34,0.00,,,0.00,WUHU216HW,2013-02-02 00:49:00,
2013-02-01 17:52:00,58.1,29.7,30.06,North,0,0.0,0.0,34,0.00,,,0.00,WUHU216HW,2013-02-02 00:52:00,
2013-02-01 17:54:00,58.0,30.2,30.06,North,0,0.0,0.0,35,0.00,,,0.00,WUHU216HW,2013-02-02 00:54:00,
2013-02-01 17:55:00,57.6,30.6,30.06,North,0,0.0,0.0,36,0.00,,,0.00,WUHU216HW,2013-02-02 00:55:00,
2013-02-01 17:57:00,57.4,30.5,30.06,North,0,0.0,0.0,36,0.00,,,0.00,WUHU216HW,2013-02-02 00:57:00,
2013-02-01 17:58:00,57.2,30.3,30.06,North,0,0.0,0.0,36,0.00,,,0.00,WUHU216HW,2013-02-02 00:58:00,
2013-02-01 18:00:00,57.2,30.3,30.06,North,0,0.0,0.0,36,0.00,,,0.00,WUHU216HW,2013-02-02 01:00:00,
2013-02-01 18:01:00,57.1,30.2,30.06,North,0,0.0,0.0,36,0.00,,,0.00,WUHU216HW,2013-02-02 01:01:00,
2013-02-01 18:03:00,57.1,30.2,30.06,North,0,0.0,0.0,36,0.00,,,0.00,WUHU216HW,2013-02-02 01:03:00,
2013-02-01 18:05:00,56.9,30.7,30.06,North,0,0.0,0.0,37,0.00,,,0.00,WUHU216HW,2013-02-02 01:05:00,
2013-02-01 18:06:00,56.9,30.7,30.06,North,0,0.0,0.0,37,0.00,,,0.00,WUHU216HW,2013-02-02 01:06:00,
2013-02-01 18:08:00,56.9,30.0,30.06,North,0,0.0,0.0,36,0.00,,,0.00,WUHU216HW,2013-02-02 01:08:00,
2013-02-01 18:09:00,56.7,29.8,30.06,North,0,0.0,0.0,36,0.00,,,0.00,WUHU216HW,2013-02-02 01:09:00,
2013-02-01 18:10:00,56.7,29.8,30.06,North,0,0.0,0.0,36,0.00,,,0.00,WUHU216HW,2013-02-02 01:10:00,
2013-02-01 18:12:00,56.5,29.7,30.06,North,0,0.0,0.0,36,0.00,,,0.00,WUHU216HW,2013-02-02 01:12:00,
2013-02-01 18:13:00,56.5,29.7,30.06,North,0,0.0,0.0,36,0.00,,,0.00,WUHU216HW,2013-02-02 01:13:00,
2013-02-01 18:14:00,56.5,29.7,30.06,North,0,0.0,0.0,36,0.00,,,0.00,WUHU216HW,2013-02-02 01:14:00,
2013-02-01 18:17:00,56.2,30.1,30.06,North,0,0.0,0.0,37,0.00,,,0.00,WUHU216HW,2013-02-02 01:17:00,
2013-02-01 18:18:00,56.2,30.1,30.06,North,0,0.0,0.0,37,0.00,,,0.00,WUHU216HW,2013-02-02 01:18:00,
2013-02-01 18:19:00,56.2,30.1,30.06,North,0,0.0,0.0,37,0.00,,,0.00,WUHU216HW,2013-02-02 01:19:00,
2013-02-01 18:23:00,56.0,29.9,30.06,North,0,0.0,0.0,37,0.00,,,0.00,WUHU216HW,2013-02-02 01:23:00,
2013-02-01 18:24:00,56.0,29.9,30.06,North,0,0.0,0.0,37,0.00,,,0.00,WUHU216HW,2013-02-02 01:24:00,
2013-02-01 18:26:00,56.0,29.9,30.06,North,0,0.0,0.0,37,0.00,,,0.00,WUHU216HW,2013-02-02 01:26:00,
2013-02-01 18:28:00,55.8,29.7,30.06,North,0,0.0,0.0,37,0.00,,,0.00,WUHU216HW,2013-02-02 01:28:00,
2013-02-01 18:29:00,55.8,29.7,30.06,North,0,0.0,0.0,37,0.00,,,0.00,WUHU216HW,2013-02-02 01:29:00,
2013-02-01 18:30:00,55.8,29.7,30.06,North,0,0.0,0.0,37,0.00,,,0.00,WUHU216HW,2013-02-02 01:30:00,
2013-02-01 18:31:00,55.8,29.7,30.06,North,0,0.0,0.0,37,0.00,,,0.00,WUHU216HW,2013-02-02 01:31:00,
2013-02-01 18:33:00,55.8,29.7,30.06,North,0,0.0,0.0,37,0.00,,,0.00,WUHU216HW,2013-02-02 01:33:00,
2013-02-01 18:34:00,55.6,29.5,30.06,North,0,0.0,0.0,37,0.00,,,0.00,WUHU216HW,2013-02-02 01:34:00,
2013-02-01 18:35:00,55.6,29.5,30.07,North,0,0.0,0.0,37,0.00,,,0.00,WUHU216HW,2013-02-02 01:35:00,
2013-02-01 18:36:00,55.6,29.5,30.07,North,0,0.0,0.0,37,0.00,,,0.00,WUHU216HW,2013-02-02 01:36:00,
2013-02-01 18:39:00,55.4,29.4,30.07,North,0,0.0,0.0,37,0.00,,,0.00,WUHU216HW,2013-02-02 01:39:00,
2013-02-01 18:40:00,55.4,29.4,30.07,North,0,0.0,0.0,37,0.00,,,0.00,WUHU216HW,2013-02-02 01:40:00,
2013-02-01 18:42:00,55.3,29.3,30.07,North,0,0.0,0.0,37,0.00,,,0.00,WUHU216HW,2013-02-02 01:42:00,
2013-02-01 18:44:00,55.3,29.3,30.07,North,0,0.0,0.0,37,0.00,,,0.00,WUHU216HW,2013-02-02 01:44:00,
2013-02-01 18:46:00,55.3,29.3,30.07,North,0,0.0,0.0,37,0.00,,,0.00,WUHU216HW,2013-02-02 01:46:00,
2013-02-01 18:47:00,55.1,29.1,30.07,North,0,0.0,0.0,37,0.00,,,0.00,WUHU216HW,2013-02-02 01:47:00,
2013-02-01 18:50:00,55.1,29.1,30.07,North,0,0.0,0.0,37,0.00,,,0.00,WUHU216HW,2013-02-02 01:50:00,
2013-02-01 18:51:00,54.9,28.9,30.08,North,0,0.0,0.0,37,0.00,,,0.00,WUHU216HW,2013-02-02 01:51:00,
2013-02-01 18:52:00,54.9,28.9,30.08,North,0,0.0,0.0,37,0.00,,,0.00,WUHU216HW,2013-02-02 01:52:00,
2013-02-01 18:53:00,54.7,28.8,30.08,North,0,0.0,0.0,37,0.00,,,0.00,WUHU216HW,2013-02-02 01:53:00,
2013-02-01 18:55:00,54.7,28.8,30.08,North,0,0.0,0.0,37,0.00,,,0.00,WUHU216HW,2013-02-02 01:55:00,
2013-02-01 18:57:00,54.5,28.6,30.08,North,0,0.0,0.0,37,0.00,,,0.00,WUHU216HW,2013-02-02 01:57:00,
2013-02-01 18:58:00,54.5,28.6,30.08,North,0,0.0,0.0,37,0.00,,,0.00,WUHU216HW,2013-02-02 01:58:00,
2013-02-01 19:02:00,54.4,29.2,30.08,North,0,0.0,0.0,38,0.00,,,0.00,WUHU216HW,2013-02-02 02:02:00,
2013-02-01 19:03:00,54.4,29.2,30.08,North,0,0.0,0.0,38,0.00,,,0.00,WUHU216HW,2013-02-02 02:03:00,
2013-02-01 19:04:00,54.4,29.2,30.08,North,0,0.0,0.0,38,0.00,,,0.00,WUHU216HW,2013-02-02 02:04:00,
2013-02-01 19:07:00,54.4,29.2,30.09,North,0,0.0,0.0,38,0.00,,,0.00,WUHU216HW,2013-02-02 02:07:00,
2013-02-01 19:08:00,54.4,29.2,30.09,North,0,0.0,0.0,38,0.00,,,0.00,WUHU216HW,2013-02-02 02:08:00,
2013-02-01 19:10:00,54.2,29.0,30.09,North,0,0.0,0.0,38,0.00,,,0.00,WUHU216HW,2013-02-02 02:10:00,
2013-02-01 19:13:00,54.2,29.0,30.09,North,0,0.0,0.0,38,0.00,,,0.00,WUHU216HW,2013-02-02 02:13:00,
2013-02-01 19:14:00,54.2,29.0,30.09,North,0,0.0,0.0,38,0.00,,,0.00,WUHU216HW,2013-02-02 02:14:00,
2013-02-01 19:15:00,54.2,29.0,30.09,North,0,0.0,0.0,38,0.00,,,0.00,WUHU216HW,2013-02-02 02:15:00,
2013-02-01 19:18:00,54.0,28.8,30.09,North,0,0.0,0.0,38,0.00,,,0.00,WUHU216HW,2013-02-02 02:18:00,
2013-02-01 19:19:00,53.8,28.7,30.09,North,0,0.0,0.0,38,0.00,,,0.00,WUHU216HW,2013-02-02 02:19:00,
2013-02-01 19:20:00,53.8,28.7,30.09,North,0,0.0,0.0,38,0.00,,,0.00,WUHU216HW,2013-02-02 02:20:00,
2013-02-01 19:24:00,53.6,28.5,30.09,North,0,0.0,0.0,38,0.00,,,0.00,WUHU216HW,2013-02-02 02:24:00,
2013-02-01 19:25:00,53.5,28.4,30.09,North,0,0.0,0.0,38,0.00,,,0.00,WUHU216HW,2013-02-02 02:25:00,
2013-02-01 19:26:00,53.5,28.4,30.09,North,0,0.0,0.0,38,0.00,,,0.00,WUHU216HW,2013-02-02 02:26:00,
2013-02-01 19:30:00,53.3,28.2,30.10,North,0,0.0,0.0,38,0.00,,,0.00,WUHU216HW,2013-02-02 02:30:00,
2013-02-01 19:31:00,53.3,28.2,30.10,North,0,0.0,0.0,38,0.00,,,0.00,WUHU216HW,2013-02-02 02:31:00,
2013-02-01 19:36:00,52.7,28.4,30.10,North,0,0.0,0.0,39,0.00,,,0.00,WUHU216HW,2013-02-02 02:36:00,
2013-02-01 19:37:00,52.6,28.3,30.10,North,0,0.0,0.0,39,0.00,,,0.00,WUHU216HW,2013-02-02 02:37:00,
2013-02-01 19:41:00,52.4,28.1,30.10,North,0,0.0,0.0,39,0.00,,,0.00,WUHU216HW,2013-02-02 02:41:00,
2013-02-01 19:42:00,52.4,28.1,30.10,North,0,0.0,0.0,39,0.00,,,0.00,WUHU216HW,2013-02-02 02:42:00,
2013-02-01 19:46:00,52.2,28.6,30.10,North,0,0.0,0.0,40,0.00,,,0.00,WUHU216HW,2013-02-02 02:46:00,
2013-02-01 19:47:00,52.2,28.6,30.10,North,0,0.0,0.0,40,0.00,,,0.00,WUHU216HW,2013-02-02 02:47:00,
2013-02-01 19:48:00,52.2,29.2,30.10,North,0,0.0,0.0,41,0.00,,,0.00,WUHU216HW,2013-02-02 02:48:00,
2013-02-01 19:51:00,51.5,28.5,30.11,North,0,0.0,0.0,41,0.00,,,0.00,WUHU216HW,2013-02-02 02:51:00,
2013-02-01 19:53:00,51.1,27.6,30.11,North,0,0.0,0.0,40,0.00,,,0.00,WUHU216HW,2013-02-02 02:53:00,
2013-02-01 19:57:00,50.9,27.5,30.11,North,0,0.0,0.0,40,0.00,,,0.00,WUHU216HW,2013-02-02 02:57:00,
2013-02-01 19:58:00,50.8,27.3,30.11,North,0,0.0,0.0,40,0.00,,,0.00,WUHU216HW,2013-02-02 02:58:00,
2013-02-01 19:59:00,50.8,27.3,30.11,North,0,0.0,0.0,40,0.00,,,0.00,WUHU216HW,2013-02-02 02:59:00,
2013-02-01 20:02:00,50.8,27.3,30.11,North,0,0.0,0.0,40,0.00,,,0.00,WUHU216HW,2013-02-02 03:02:00,
2013-02-01 20:04:00,50.8,27.3,30.11,North,0,0.0,0.0,40,0.00,,,0.00,WUHU216HW,2013-02-02 03:04:00,
2013-02-01 20:08:00,50.6,27.7,30.11,North,0,0.0,0.0,41,0.00,,,0.00,WUHU216HW,2013-02-02 03:08:00,
2013-02-01 20:09:00,50.6,27.7,30.11,North,0,0.0,0.0,41,0.00,,,0.00,WUHU216HW,2013-02-02 03:09:00,
2013-02-01 20:10:00,50.6,27.1,30.11,North,0,0.0,0.0,40,0.00,,,0.00,WUHU216HW,2013-02-02 03:10:00,
2013-02-01 20:13:00,50.6,27.1,30.11,North,0,0.0,0.0,40,0.00,,,0.00,WUHU216HW,2013-02-02 03:13:00,
2013-02-01 20:15:00,50.4,27.0,30.11,North,0,0.0,0.0,40,0.00,,,0.00,WUHU216HW,2013-02-02 03:15:00,
2013-02-01 20:19:00,50.4,27.0,30.11,North,0,0.0,0.0,40,0.00,,,0.00,WUHU216HW,2013-02-02 03:19:00,
2013-02-01 20:20:00,50.4,27.0,30.11,North,0,0.0,0.0,40,0.00,,,0.00,WUHU216HW,2013-02-02 03:20:00,
2013-02-01 20:24:00,50.4,27.6,30.11,North,0,0.0,0.0,41,0.00,,,0.00,WUHU216HW,2013-02-02 03:24:00,
2013-02-01 20:25:00,50.4,27.6,30.11,North,0,0.0,0.0,41,0.00,,,0.00,WUHU216HW,2013-02-02 03:25:00,
2013-02-01 20:26:00,50.4,27.6,30.11,North,0,0.0,0.0,41,0.00,,,0.00,WUHU216HW,2013-02-02 03:26:00,
2013-02-01 20:27:00,50.4,27.6,30.11,North,0,0.0,0.0,41,0.00,,,0.00,WUHU216HW,2013-02-02 03:27:00,
2013-02-01 20:29:00,50.2,27.4,30.11,North,0,0.0,0.0,41,0.00,,,0.00,WUHU216HW,2013-02-02 03:29:00,
2013-02-01 20:30:00,50.2,27.9,30.11,North,0,0.0,0.0,42,0.00,,,0.00,WUHU216HW,2013-02-02 03:30:00,
2013-02-01 20:31:00,50.0,27.7,30.11,North,0,0.0,0.0,42,0.00,,,0.00,WUHU216HW,2013-02-02 03:31:00,
2013-02-01 20:32:00,50.0,27.7,30.11,North,0,0.0,0.0,42,0.00,,,0.00,WUHU216HW,2013-02-02 03:32:00,
2013-02-01 20:35:00,50.0,27.2,30.11,North,0,0.0,0.0,41,0.00,,,0.00,WUHU216HW,2013-02-02 03:35:00,
2013-02-01 20:37:00,49.9,27.6,30.11,North,0,0.0,0.0,42,0.00,,,0.00,WUHU216HW,2013-02-02 03:37:00,
2013-02-01 20:38:00,49.9,27.6,30.11,North,0,0.0,0.0,42,0.00,,,0.00,WUHU216HW,2013-02-02 03:38:00,
2013-02-01 20:40:00,49.9,27.6,30.12,North,0,0.0,0.0,42,0.00,,,0.00,WUHU216HW,2013-02-02 03:40:00,
2013-02-01 20:42:00,49.7,27.5,30.12,North,0,0.0,0.0,42,0.00,,,0.00,WUHU216HW,2013-02-02 03:42:00,
2013-02-01 20:43:00,49.9,27.6,30.12,North,0,0.0,0.0,42,0.00,,,0.00,WUHU216HW,2013-02-02 03:43:00,
2013-02-01 20:46:00,49.9,27.6,30.12,North,0,0.0,0.0,42,0.00,,,0.00,WUHU216HW,2013-02-02 03:46:00,
2013-02-01 20:48:00,49.9,27.6,30.12,North,0,0.0,0.0,42,0.00,,,0.00,WUHU216HW,2013-02-02 03:48:00,
2013-02-01 20:49:00,49.7,27.5,30.12,North,0,0.0,0.0,42,0.00,,,0.00,WUHU216HW,2013-02-02 03:49:00,
2013-02-01 20:52:00,49.7,27.5,30.12,North,0,0.0,0.0,42,0.00,,,0.00,WUHU216HW,2013-02-02 03:52:00,
2013-02-01 20:54:00,49.7,27.5,30.12,North,0,0.0,0.0,42,0.00,,,0.00,WUHU216HW,2013-02-02 03:54:00,
2013-02-01 20:55:00,49.7,27.5,30.12,North,0,0.0,0.0,42,0.00,,,0.00,WUHU216HW,2013-02-02 03:55:00,
2013-02-01 20:58:00,49.9,27.6,30.12,North,0,0.0,0.0,42,0.00,,,0.00,WUHU216HW,2013-02-02 03:58:00,
2013-02-01 20:59:00,49.9,27.6,30.12,North,0,0.0,0.0,42,0.00,,,0.00,WUHU216HW,2013-02-02 03:59:00,
2013-02-01 21:00:00,49.9,27.6,30.12,North,0,0.0,0.0,42,0.00,,,0.00,WUHU216HW,2013-02-02 04:00:00,
2013-02-01 21:03:00,50.0,27.7,30.12,North,0,0.0,0.0,42,0.00,,,0.00,WUHU216HW,2013-02-02 04:03:00,
2013-02-01 21:05:00,50.0,27.7,30.12,North,0,0.0,0.0,42,0.00,,,0.00,WUHU216HW,2013-02-02 04:05:00,
2013-02-01 21:06:00,50.0,27.7,30.13,North,0,0.0,0.0,42,0.00,,,0.00,WUHU216HW,2013-02-02 04:06:00,
2013-02-01 21:08:00,50.0,27.7,30.12,North,0,0.0,0.0,42,0.00,,,0.00,WUHU216HW,2013-02-02 04:08:00,
2013-02-01 21:10:00,50.0,27.7,30.12,North,0,0.0,0.0,42,0.00,,,0.00,WUHU216HW,2013-02-02 04:10:00,
2013-02-01 21:11:00,50.0,27.7,30.12,North,0,0.0,0.0,42,0.00,,,0.00,WUHU216HW,2013-02-02 04:11:00,
2013-02-01 21:13:00,50.0,27.7,30.12,North,0,0.0,0.0,42,0.00,,,0.00,WUHU216HW,2013-02-02 04:13:00,
2013-02-01 21:16:00,49.9,27.6,30.13,North,0,0.0,0.0,42,0.00,,,0.00,WUHU216HW,2013-02-02 04:16:00,
2013-02-01 21:18:00,49.9,27.6,30.13,North,0,0.0,0.0,42,0.00,,,0.00,WUHU216HW,2013-02-02 04:18:00,
2013-02-01 21:21:00,49.9,27.6,30.13,North,0,0.0,0.0,42,0.00,,,0.00,WUHU216HW,2013-02-02 04:21:00,
2013-02-01 21:22:00,49.7,27.5,30.13,North,0,0.0,0.0,42,0.00,,,0.00,WUHU216HW,2013-02-02 04:22:00,
2013-02-01 21:24:00,49.7,27.5,30.13,North,0,0.0,0.0,42,0.00,,,0.00,WUHU216HW,2013-02-02 04:24:00,
2013-02-01 21:27:00,49.7,27.5,30.13,North,0,0.0,0.0,42,0.00,,,0.00,WUHU216HW,2013-02-02 04:27:00,
2013-02-01 21:29:00,49.5,27.3,30.13,North,0,0.0,0.0,42,0.00,,,0.00,WUHU216HW,2013-02-02 04:29:00,
2013-02-01 21:32:00,49.5,27.3,30.13,North,0,0.0,0.0,42,0.00,,,0.00,WUHU216HW,2013-02-02 04:32:00,
2013-02-01 21:34:00,49.5,27.3,30.13,North,0,0.0,0.0,42,0.00,,,0.00,WUHU216HW,2013-02-02 04:34:00,
2013-02-01 21:37:00,49.5,27.8,30.13,North,0,0.0,0.0,43,0.00,,,0.00,WUHU216HW,2013-02-02 04:37:00,
2013-02-01 21:39:00,49.7,27.5,30.14,North,0,0.0,0.0,42,0.00,,,0.00,WUHU216HW,2013-02-02 04:39:00,
2013-02-01 21:42:00,49.7,27.5,30.14,North,0,0.0,0.0,42,0.00,,,0.00,WUHU216HW,2013-02-02 04:42:00,
2013-02-01 21:44:00,49.7,27.5,30.14,North,0,0.0,0.0,42,0.00,,,0.00,WUHU216HW,2013-02-02 04:44:00,
2013-02-01 21:45:00,49.7,27.5,30.14,North,0,0.0,0.0,42,0.00,,,0.00,WUHU216HW,2013-02-02 04:45:00,
2013-02-01 21:47:00,49.5,27.3,30.13,North,0,0.0,0.0,42,0.00,,,0.00,WUHU216HW,2013-02-02 04:47:00,
2013-02-01 21:49:00,49.5,27.3,30.13,North,0,0.0,0.0,42,0.00,,,0.00,WUHU216HW,2013-02-02 04:49:00,
2013-02-01 21:50:00,49.5,27.3,30.13,North,0,0.0,0.0,42,0.00,,,0.00,WUHU216HW,2013-02-02 04:50:00,
2013-02-01 21:53:00,49.3,27.1,30.14,North,0,0.0,0.0,42,0.00,,,0.00,WUHU216HW,2013-02-02 04:53:00,
2013-02-01 21:55:00,49.1,26.9,30.14,North,0,0.0,0.0,42,0.00,,,0.00,WUHU216HW,2013-02-02 04:55:00,
2013-02-01 21:56:00,49.1,26.9,30.14,North,0,0.0,0.0,42,0.00,,,0.00,WUHU216HW,2013-02-02 04:56:00,
2013-02-01 21:59:00,49.1,26.9,30.14,North,0,0.0,0.0,42,0.00,,,0.00,WUHU216HW,2013-02-02 04:59:00,
2013-02-01 22:00:00,49.0,26.7,30.14,North,0,0.0,0.0,42,0.00,,,0.00,WUHU216HW,2013-02-02 05:00:00,
2013-02-01 22:01:00,49.0,26.7,30.14,North,0,0.0,0.0,42,0.00,,,0.00,WUHU216HW,2013-02-02 05:01:00,
2013-02-01 22:05:00,48.8,27.2,30.14,North,0,0.0,0.0,43,0.00,,,0.00,WUHU216HW,2013-02-02 05:05:00,
2013-02-01 22:06:00,48.8,27.2,30.14,North,0,0.0,0.0,43,0.00,,,0.00,WUHU216HW,2013-02-02 05:06:00,
2013-02-01 22:11:00,48.8,27.7,30.14,North,0,0.0,0.0,44,0.00,,,0.00,WUHU216HW,2013-02-02 05:11:00,
2013-02-01 22:12:00,48.8,27.7,30.14,North,0,0.0,0.0,44,0.00,,,0.00,WUHU216HW,2013-02-02 05:12:00,
2013-02-01 22:16:00,48.8,27.7,30.14,North,0,0.0,0.0,44,0.00,,,0.00,WUHU216HW,2013-02-02 05:16:00,
2013-02-01 22:17:00,48.8,27.7,30.14,North,0,0.0,0.0,44,0.00,,,0.00,WUHU216HW,2013-02-02 05:17:00,
2013-02-01 22:19:00,48.8,27.7,30.14,North,0,0.0,0.0,44,0.00,,,0.00,WUHU216HW,2013-02-02 05:19:00,
2013-02-01 22:22:00,48.8,27.7,30.14,North,0,0.0,0.0,44,0.00,,,0.00,WUHU216HW,2013-02-02 05:22:00,
2013-02-01 22:23:00,48.6,28.1,30.14,North,0,0.0,0.0,45,0.00,,,0.00,WUHU216HW,2013-02-02 05:23:00,
2013-02-01 22:24:00,48.6,28.1,30.14,North,0,0.0,0.0,45,0.00,,,0.00,WUHU216HW,2013-02-02 05:24:00,
2013-02-01 22:27:00,48.6,28.1,30.14,North,0,0.0,0.0,45,0.00,,,0.00,WUHU216HW,2013-02-02 05:27:00,
2013-02-01 22:28:00,48.4,27.9,30.14,North,0,0.0,0.0,45,0.00,,,0.00,WUHU216HW,2013-02-02 05:28:00,
2013-02-01 22:29:00,48.4,27.9,30.14,North,0,0.0,0.0,45,0.00,,,0.00,WUHU216HW,2013-02-02 05:29:00,
2013-02-01 22:33:00,48.2,27.7,30.14,North,0,0.0,0.0,45,0.00,,,0.00,WUHU216HW,2013-02-02 05:33:00,
2013-02-01 22:34:00,48.2,27.7,30.14,North,0,0.0,0.0,45,0.00,,,0.00,WUHU216HW,2013-02-02 05:34:00,
2013-02-01 22:35:00,48.2,27.7,30.14,North,0,0.0,0.0,45,0.00,,,0.00,WUHU216HW,2013-02-02 05:35:00,
2013-02-01 22:38:00,48.2,28.3,30.14,North,0,0.0,0.0,46,0.00,,,0.00,WUHU216HW,2013-02-02 05:38:00,
2013-02-01 22:39:00,48.2,28.3,30.14,North,0,0.0,0.0,46,0.00,,,0.00,WUHU216HW,2013-02-02 05:39:00,
2013-02-01 22:40:00,48.2,28.3,30.14,North,0,0.0,0.0,46,0.00,,,0.00,WUHU216HW,2013-02-02 05:40:00,
2013-02-01 22:44:00,48.1,28.1,30.14,North,0,0.0,0.0,46,0.00,,,0.00,WUHU216HW,2013-02-02 05:44:00,
2013-02-01 22:45:00,48.1,28.1,30.15,North,0,0.0,0.0,46,0.00,,,0.00,WUHU216HW,2013-02-02 05:45:00,
2013-02-01 22:46:00,48.1,28.1,30.15,North,0,0.0,0.0,46,0.00,,,0.00,WUHU216HW,2013-02-02 05:46:00,
2013-02-01 22:49:00,47.7,27.8,30.15,North,0,0.0,0.0,46,0.00,,,0.00,WUHU216HW,2013-02-02 05:49:00,
2013-02-01 22:51:00,47.3,27.5,30.15,North,0,0.0,0.0,46,0.00,,,0.00,WUHU216HW,2013-02-02 05:51:00,
2013-02-01 22:55:00,47.2,27.8,30.15,North,0,0.0,0.0,47,0.00,,,0.00,WUHU216HW,2013-02-02 05:55:00,
2013-02-01 22:56:00,47.0,28.2,30.15,North,0,0.0,0.0,48,0.00,,,0.00,WUHU216HW,2013-02-02 05:56:00,
2013-02-01 22:57:00,47.0,28.2,30.15,North,0,0.0,0.0,48,0.00,,,0.00,WUHU216HW,2013-02-02 05:57:00,
2013-02-01 23:00:00,46.6,27.9,30.15,North,0,0.0,0.0,48,0.00,,,0.00,WUHU216HW,2013-02-02 06:00:00,
2013-02-01 23:02:00,46.6,27.9,30.15,North,0,0.0,0.0,48,0.00,,,0.00,WUHU216HW,2013-02-02 06:02:00,
2013-02-01 23:06:00,46.6,27.9,30.15,North,0,0.0,0.0,48,0.00,,,0.00,WUHU216HW,2013-02-02 06:06:00,
2013-02-01 23:07:00,46.6,27.9,30.15,North,0,0.0,0.0,48,0.00,,,0.00,WUHU216HW,2013-02-02 06:07:00,
2013-02-01 23:08:00,46.6,28.5,30.15,North,0,0.0,0.0,49,0.00,,,0.00,WUHU216HW,2013-02-02 06:08:00,
2013-02-01 23:12:00,46.4,28.3,30.15,North,0,0.0,0.0,49,0.00,,,0.00,WUHU216HW,2013-02-02 06:12:00,
2013-02-01 23:13:00,46.4,28.3,30.15,North,0,0.0,0.0,49,0.00,,,0.00,WUHU216HW,2013-02-02 06:13:00,
2013-02-01 23:14:00,46.4,28.3,30.15,North,0,0.0,0.0,49,0.00,,,0.00,WUHU216HW,2013-02-02 06:14:00,
2013-02-01 23:17:00,46.4,28.3,30.15,North,0,0.0,0.0,49,0.00,,,0.00,WUHU216HW,2013-02-02 06:17:00,
2013-02-01 23:18:00,46.4,28.3,30.15,North,0,0.0,0.0,49,0.00,,,0.00,WUHU216HW,2013-02-02 06:18:00,
2013-02-01 23:19:00,46.4,28.3,30.15,North,0,0.0,0.0,49,0.00,,,0.00,WUHU216HW,2013-02-02 06:19:00,
2013-02-01 23:22:00,46.3,28.1,30.16,North,0,0.0,0.0,49,0.00,,,0.00,WUHU216HW,2013-02-02 06:22:00,
2013-02-01 23:23:00,46.3,28.1,30.16,North,0,0.0,0.0,49,0.00,,,0.00,WUHU216HW,2013-02-02 06:23:00,
2013-02-01 23:24:00,46.3,28.1,30.16,North,0,0.0,0.0,49,0.00,,,0.00,WUHU216HW,2013-02-02 06:24:00,
2013-02-01 23:25:00,46.3,28.1,30.16,North,0,0.0,0.0,49,0.00,,,0.00,WUHU216HW,2013-02-02 06:25:00,
2013-02-01 23:28:00,46.3,28.1,30.16,North,0,0.0,0.0,49,0.00,,,0.00,WUHU216HW,2013-02-02 06:28:00,
2013-02-01 23:29:00,46.3,28.1,30.16,North,0,0.0,0.0,49,0.00,,,0.00,WUHU216HW,2013-02-02 06:29:00,
2013-02-01 23:30:00,46.3,28.1,30.16,North,0,0.0,0.0,49,0.00,,,0.00,WUHU216HW,2013-02-02 06:30:00,
2013-02-01 23:31:00,46.4,28.3,30.16,North,0,0.0,0.0,49,0.00,,,0.00,WUHU216HW,2013-02-02 06:31:00,
2013-02-01 23:33:00,46.4,28.3,30.16,North,0,0.0,0.0,49,0.00,,,0.00,WUHU216HW,2013-02-02 06:33:00,
2013-02-01 23:35:00,46.4,28.3,30.16,North,0,0.0,0.0,49,0.00,,,0.00,WUHU216HW,2013-02-02 06:35:00,
2013-02-01 23:36:00,46.4,28.3,30.16,North,0,0.0,0.0,49,0.00,,,0.00,WUHU216HW,2013-02-02 06:36:00,
2013-02-01 23:39:00,46.4,28.3,30.16,North,0,0.0,0.0,49,0.00,,,0.00,WUHU216HW,2013-02-02 06:39:00,
2013-02-01 23:41:00,46.4,28.3,30.16,North,0,0.0,0.0,49,0.00,,,0.00,WUHU216HW,2013-02-02 06:41:00,
2013-02-01 23:42:00,46.4,28.3,30.16,North,0,0.0,0.0,49,0.00,,,0.00,WUHU216HW,2013-02-02 06:42:00,
2013-02-01 23:46:00,46.4,28.3,30.16,North,0,0.0,0.0,49,0.00,,,0.00,WUHU216HW,2013-02-02 06:46:00,
2013-02-01 23:47:00,46.4,28.3,30.16,North,0,0.0,0.0,49,0.00,,,0.00,WUHU216HW,2013-02-02 06:47:00,
2013-02-01 23:52:00,46.4,28.8,30.16,North,0,0.0,0.0,50,0.00,,,0.00,WUHU216HW,2013-02-02 06:52:00,
2013-02-01 23:53:00,46.4,28.8,30.16,North,0,0.0,0.0,50,0.00,,,0.00,WUHU216HW,2013-02-02 06:53:00,
2013-02-01 23:57:00,46.4,28.8,30.16,North,0,0.0,0.0,50,0.00,,,0.00,WUHU216HW,2013-02-02 06:57:00,
2013-02-01 23:58:00,46.4,28.8,30.16,North,0,0.0,0.0,50,0.00,,,0.00,WUHU216HW,2013-02-02 06:58:00,